M I D A S
Marine Information and Data Acquisition System
Tripno 681 of the Zeeleeuw from 2004-04-01 06:13:06 to 2004-04-01 13:39:56
Back to CruiseResearch ActivitiesStationsMapUnderway DataData graphs

EquipmentUnitsComment
TimeDGPSUTC
LatitudeDGPSDM.mWGS84
LongitudeDGPSDM.mWGS84
TemperatureSBE03/SBE38deg celciusITS90
ConductivitySBE21S/mITS90
SalinitySBE21 Practical Salinity Units
ChlorophylAChelsea fluorimeterg/lCalibrated in Aceton
Missing or incorrect values are displayed as -999
Sea surface data collected by the RV Zeeleeuw from 2004-04-01 06:13:06 to 2004-04-01 13:39:56
                                                                                    Next 1000 lines
Time Latitude Longitude Temperature Conductivity Salinity ChlorophylA
2004-04-01 06:13:13 51°13.595 2°56.098 15.456169 0.011832 0.060086 -0.612702
2004-04-01 06:13:18 51°13.595 2°56.098 15.456558 0.011832 0.060087 -0.578993
2004-04-01 06:13:24 51°13.595 2°56.098 15.456558 0.011832 0.060087 -0.578993
2004-04-01 06:13:28 51°13.595 2°56.098 15.462737 0.011832 0.060087 -0.612702
2004-04-01 06:13:34 51°13.595 2°56.098 15.468137 0.011832 0.060088 -0.578993
2004-04-01 06:13:38 51°13.595 2°56.098 15.462218 0.011832 0.060088 -0.612702
2004-04-01 06:13:44 51°13.595 2°56.098 15.462477 0.011832 0.060089 -0.578993
2004-04-01 06:13:48 51°13.595 2°56.098 15.463558 0.011832 0.060089 -0.578993
2004-04-01 06:13:54 51°13.595 2°56.097 15.463558 0.011832 0.060089 -0.578993
2004-04-01 06:13:58 51°13.595 2°56.096 15.365059 0.011832 0.06009 -0.612702
2004-04-01 06:14:04 51°13.596 2°56.094 15.391189 0.011832 0.060091 -0.612702
2004-04-01 06:14:08 51°13.597 2°56.091 15.33143 0.011832 0.060091 -0.578993
2004-04-01 06:14:13 51°13.598 2°56.087 15.325975 0.011832 0.060092 -0.578993
2004-04-01 06:14:18 51°13.599 2°56.083 15.456903 0.011832 0.060092 -0.578993
2004-04-01 06:14:24 51°13.601 2°56.076 15.456903 0.011832 0.060092 -0.578993
2004-04-01 06:14:29 51°13.603 2°56.071 15.371766 0.011832 0.060093 -0.612702
2004-04-01 06:14:34 51°13.604 2°56.065 15.401396 0.011832 0.060093 -0.578993
2004-04-01 06:14:38 51°13.605 2°56.06 15.454916 0.011832 0.060093 -0.578993
2004-04-01 06:14:44 51°13.607 2°56.052 15.404553 0.011832 0.060094 -0.578993
2004-04-01 06:14:49 51°13.609 2°56.045 15.429847 0.011832 0.060095 -0.578993
2004-04-01 06:14:54 51°13.611 2°56.037 15.429847 0.011832 0.060095 -0.578993
2004-04-01 06:14:58 51°13.612 2°56.031 15.429847 0.011832 0.060095 -0.612702
2004-04-01 06:15:04 51°13.614 2°56.022 15.450075 0.011832 0.060096 -0.578993
2004-04-01 06:15:09 51°13.617 2°56.015 15.445365 0.011832 0.060096 -0.612702
2004-04-01 06:15:14 51°13.619 2°56.007 15.441691 0.011832 0.060096 -0.578993
2004-04-01 06:15:18 51°13.62 2°56 15.447699 0.011832 0.060098 -0.578993
2004-04-01 06:15:24 51°13.623 2°55.99 15.447699 0.011832 0.060098 -0.578993
2004-04-01 06:15:29 51°13.626 2°55.982 15.467489 0.011832 0.060098 -0.578993
2004-04-01 06:15:34 51°13.628 2°55.973 15.455521 0.011832 0.060099 -0.578993
2004-04-01 06:15:40 51°13.632 2°55.962 15.452712 0.011832 0.060099 -0.612702
2004-04-01 06:15:44 51°13.634 2°55.955 15.491119 0.011832 0.060099 -0.578993
2004-04-01 06:15:49 51°13.637 2°55.946 15.513142 0.011832 0.060099 -0.578993
2004-04-01 06:15:54 51°13.64 2°55.937 15.513142 0.011832 0.060099 -0.578993
2004-04-01 06:15:58 51°13.643 2°55.93 15.496301 0.011832 0.060101 -0.612702
2004-04-01 06:16:04 51°13.647 2°55.919 15.472674 0.011832 0.060101 -0.578993
2004-04-01 06:16:09 51°13.65 2°55.91 15.47384 0.011832 0.060101 -0.612702
2004-04-01 06:16:14 51°13.653 2°55.9 15.469563 0.011728 0.05963 -0.578993
2004-04-01 06:16:18 51°13.656 2°55.892 15.458459 0.011832 0.060102 -0.578993
2004-04-01 06:16:24 51°13.66 2°55.88 15.458459 0.011832 0.060102 -0.578993
2004-04-01 06:16:29 51°13.662 2°55.87 15.44476 0.011832 0.060102 -0.612702
2004-04-01 06:16:34 51°13.665 2°55.859 15.441821 0.011832 0.060102 -0.612702
2004-04-01 06:16:40 51°13.667 2°55.846 15.442296 0.011832 0.060103 -0.578993
2004-04-01 06:16:44 51°13.669 2°55.837 15.445192 0.011832 0.060104 -0.578993
2004-04-01 06:16:49 51°13.67 2°55.826 15.456774 0.011832 0.060104 -0.612702
2004-04-01 06:16:54 51°13.671 2°55.814 15.456774 0.011832 0.060104 -0.612702
2004-04-01 06:16:58 51°13.672 2°55.805 15.45928 0.011832 0.060104 -0.578993
2004-04-01 06:17:04 51°13.674 2°55.791 15.45928 0.011832 0.060105 -0.612702
2004-04-01 06:17:09 51°13.674 2°55.78 15.468742 0.011832 0.060106 -0.612702
2004-04-01 06:17:14 51°13.675 2°55.77 15.480623 0.011832 0.060106 -0.578993
2004-04-01 06:17:18 51°13.676 2°55.763 15.505974 0.011832 0.060107 -0.612702
2004-04-01 06:17:24 51°13.676 2°55.754 15.505974 0.011832 0.060107 -0.612702
2004-04-01 06:17:28 51°13.677 2°55.751 15.522252 0.011832 0.060107 -0.578993
2004-04-01 06:17:33 51°13.677 2°55.749 15.657844 0.011832 0.060107 -0.612702
2004-04-01 06:17:38 51°13.678 2°55.749 15.585985 0.011832 0.060107 -0.545283
2004-04-01 06:17:44 51°13.68 2°55.75 15.575115 0.011832 0.060108 -0.578993
2004-04-01 06:17:48 51°13.681 2°55.752 15.624101 0.011832 0.060108 -0.578993
2004-04-01 06:17:54 51°13.683 2°55.755 15.624101 0.011832 0.060108 -0.578993
2004-04-01 06:17:58 51°13.685 2°55.758 15.616471 0.011832 0.060108 -0.578993
2004-04-01 06:18:04 51°13.688 2°55.762 15.612979 0.011832 0.06011 -0.545283
2004-04-01 06:18:08 51°13.691 2°55.765 15.601423 0.011832 0.06011 -0.578993
2004-04-01 06:18:14 51°13.695 2°55.769 15.478808 0.011832 0.060111 -0.578993
2004-04-01 06:18:18 51°13.697 2°55.77 15.365708 0.011832 0.060112 -0.612702
2004-04-01 06:18:24 51°13.7 2°55.772 15.365708 0.011832 0.060112 -0.612702
2004-04-01 06:18:28 51°13.701 2°55.772 15.386691 0.011832 0.060113 -0.578993
2004-04-01 06:18:33 51°13.701 2°55.772 15.437974 0.011832 0.060114 -0.578993
2004-04-01 06:18:38 51°13.7 2°55.771 15.27855 0.011832 0.060115 -0.578993
2004-04-01 06:18:43 51°13.699 2°55.77 15.472674 0.011832 0.060115 -0.612702
2004-04-01 06:18:48 51°13.697 2°55.769 15.411126 0.011832 0.060116 -0.612702
2004-04-01 06:18:54 51°13.694 2°55.766 15.411126 0.011832 0.060116 -0.612702
2004-04-01 06:18:58 51°13.691 2°55.765 15.445192 0.011832 0.060116 -0.578993
2004-04-01 06:19:04 51°13.687 2°55.762 15.545171 0.011832 0.060117 -0.578993
2004-04-01 06:19:09 51°13.685 2°55.761 15.51107 0.011832 0.060117 -0.612702
2004-04-01 06:19:14 51°13.684 2°55.76 15.57408 0.011832 0.060117 -0.578993
2004-04-01 06:19:19 51°13.684 2°55.759 15.74951 0.011728 0.059646 -0.612702
2004-04-01 06:19:24 51°13.687 2°55.759 15.74951 0.011728 0.059646 -0.612702
2004-04-01 06:19:29 51°13.69 2°55.758 15.814062 0.011832 0.060117 -0.578993
2004-04-01 06:19:34 51°13.694 2°55.757 15.773815 0.011832 0.060118 -0.578993
2004-04-01 06:19:38 51°13.698 2°55.756 15.662153 0.011832 0.060118 -0.578993
2004-04-01 06:19:44 51°13.705 2°55.752 15.663014 0.011832 0.06012 -0.612702
2004-04-01 06:19:48 51°13.71 2°55.75 15.665685 0.011832 0.06012 -0.612702
2004-04-01 06:19:54 51°13.717 2°55.744 15.665685 0.011832 0.06012 -0.612702
2004-04-01 06:19:58 51°13.721 2°55.741 15.505327 0.011832 0.060121 -0.578993
2004-04-01 06:20:04 51°13.728 2°55.735 15.48464 0.011832 0.060122 -0.578993
2004-04-01 06:20:08 51°13.732 2°55.731 15.475309 0.011832 0.060123 -0.545283
2004-04-01 06:20:13 51°13.738 2°55.725 15.506104 0.011832 0.060123 -0.578993
2004-04-01 06:20:18 51°13.744 2°55.719 15.488613 0.011832 0.060123 -0.578993
2004-04-01 06:20:24 51°13.753 2°55.711 15.488613 0.011832 0.060123 -0.578993
2004-04-01 06:20:28 51°13.759 2°55.706 15.449038 0.011832 0.060123 -0.612702
2004-04-01 06:20:34 51°13.768 2°55.697 15.452193 0.011728 0.059653 -0.612702
2004-04-01 06:20:38 51°13.774 2°55.691 15.423881 0.011832 0.060124 -0.578993
2004-04-01 06:20:44 51°13.785 2°55.681 15.450637 0.011728 0.059653 -0.612702
2004-04-01 06:20:48 51°13.792 2°55.675 15.433695 0.011832 0.060126 -0.578993
2004-04-01 06:20:53 51°13.801 2°55.667 15.433695 0.011832 0.060126 -0.578993
2004-04-01 06:20:58 51°13.81 2°55.658 15.450637 0.011728 0.059655 -0.578993
2004-04-01 06:21:04 51°13.822 2°55.647 15.464897 0.011832 0.060127 -0.578993
2004-04-01 06:21:09 51°13.831 2°55.638 15.467101 0.011832 0.060128 -0.578993
2004-04-01 06:21:14 51°13.841 2°55.63 15.381327 0.011832 0.060128 -0.612702
2004-04-01 06:21:18 51°13.849 2°55.623 15.405245 0.011832 0.060129 -0.578993
2004-04-01 06:21:24 51°13.861 2°55.613 15.405245 0.011832 0.060129 -0.578993
2004-04-01 06:21:29 51°13.871 2°55.604 15.453101 0.011832 0.060129 -0.578993
2004-04-01 06:21:34 51°13.881 2°55.596 15.402953 0.011832 0.06013 -0.578993
2004-04-01 06:21:38 51°13.889 2°55.589 15.39266 0.011832 0.06013 -0.578993
2004-04-01 06:21:44 51°13.901 2°55.58 15.400142 0.011832 0.060131 -0.578993
2004-04-01 06:21:49 51°13.911 2°55.572 15.408402 0.011832 0.060132 -0.578993
2004-04-01 06:21:54 51°13.921 2°55.564 15.408402 0.011832 0.060132 -0.578993
2004-04-01 06:21:58 51°13.929 2°55.557 15.41878 0.011832 0.060132 -0.612702
2004-04-01 06:22:04 51°13.94 2°55.548 15.433478 0.011832 0.060133 -0.612702
2004-04-01 06:22:08 51°13.948 2°55.542 15.446186 0.011832 0.060133 -0.578993
2004-04-01 06:22:14 51°13.96 2°55.533 15.444111 0.011832 0.060134 -0.578993
2004-04-01 06:22:18 51°13.968 2°55.527 15.440783 0.011832 0.060134 -0.578993
2004-04-01 06:22:24 51°13.98 2°55.518 15.440783 0.011832 0.060134 -0.578993
2004-04-01 06:22:29 51°13.99 2°55.511 15.453489 0.011832 0.060135 -0.612702
2004-04-01 06:22:33 51°13.998 2°55.506 15.454094 0.011728 0.059663 -0.578993
2004-04-01 06:22:38 51°14.008 2°55.499 15.454397 0.011728 0.059664 -0.545283
2004-04-01 06:22:44 51°14.02 2°55.49 15.461872 0.011728 0.059665 -0.578993
2004-04-01 06:22:48 51°14.028 2°55.484 15.466841 0.011832 0.060137 -0.578993
2004-04-01 06:22:52 51°14.037 2°55.479 15.466841 0.011832 0.060137 -0.578993
2004-04-01 06:22:58 51°14.049 2°55.47 15.470125 0.011832 0.060137 -0.578993
2004-04-01 06:23:04 51°14.062 2°55.461 15.47073 0.011832 0.060138 -0.578993
2004-04-01 06:23:08 51°14.071 2°55.455 15.480795 0.011728 0.059666 -0.578993
2004-04-01 06:23:13 51°14.082 2°55.448 15.482048 0.011728 0.059668 -0.578993
2004-04-01 06:23:18 51°14.094 2°55.439 15.481832 0.011832 0.060139 -0.545283
2004-04-01 06:23:24 51°14.108 2°55.429 15.481832 0.011832 0.060139 -0.545283
2004-04-01 06:23:29 51°14.12 2°55.42 15.477771 0.011728 0.059668 -0.578993
2004-04-01 06:23:33 51°14.13 2°55.413 15.417223 0.011832 0.06014 -0.612702
2004-04-01 06:23:38 51°14.143 2°55.404 15.365448 0.011832 0.060142 -0.578993
2004-04-01 06:23:44 51°14.159 2°55.392 15.422195 0.011728 0.05967 -0.578993
2004-04-01 06:23:48 51°14.169 2°55.383 15.591764 0.011728 0.05967 -0.578993
2004-04-01 06:23:53 51°14.182 2°55.371 15.591764 0.011728 0.05967 -0.578993
2004-04-01 06:23:58 51°14.194 2°55.358 15.499454 0.011832 0.060143 -0.578993
2004-04-01 06:24:04 51°14.209 2°55.342 15.453144 0.011728 0.059672 -0.578993
2004-04-01 06:24:09 51°14.221 2°55.327 15.479672 0.011832 0.060144 -0.578993
2004-04-01 06:24:14 51°14.233 2°55.311 15.458027 0.011728 0.059673 -0.612702
2004-04-01 06:24:18 51°14.243 2°55.298 15.438493 0.011728 0.059673 -0.545283
2004-04-01 06:24:24 51°14.257 2°55.278 15.438493 0.011728 0.059673 -0.545283
2004-04-01 06:24:29 51°14.268 2°55.26 15.448563 0.011728 0.059674 -0.578993
2004-04-01 06:24:34 51°14.279 2°55.242 15.39106 0.011728 0.059675 -0.578993
2004-04-01 06:24:38 51°14.288 2°55.227 15.370381 0.011728 0.059675 -0.612702
2004-04-01 06:24:42 51°14.297 2°55.212 15.355669 0.011728 0.059676 -0.578993
2004-04-01 06:24:49 51°14.313 2°55.185 15.328875 0.011832 0.060148 -0.578993
2004-04-01 06:24:54 51°14.324 2°55.165 15.328875 0.011832 0.060148 -0.578993
2004-04-01 06:24:58 51°14.332 2°55.149 15.35714 0.011728 0.059676 -0.612702
2004-04-01 06:25:04 51°14.344 2°55.124 15.436677 0.011728 0.059677 -0.612702
2004-04-01 06:25:08 51°14.351 2°55.106 15.449816 0.011728 0.059678 -0.578993
2004-04-01 06:25:14 51°14.362 2°55.079 15.433781 0.011832 0.06015 -0.578993
2004-04-01 06:25:18 51°14.37 2°55.06 15.394952 0.011728 0.059679 -0.578993
2004-04-01 06:25:24 51°14.38 2°55.031 15.394952 0.011728 0.059679 -0.578993
2004-04-01 06:25:28 51°14.388 2°55.011 15.342468 0.011728 0.059679 -0.578993
2004-04-01 06:25:34 51°14.399 2°54.981 15.301075 0.011728 0.05968 -0.578993
2004-04-01 06:25:38 51°14.407 2°54.961 15.240976 0.011832 0.060152 -0.545283
2004-04-01 06:25:44 51°14.42 2°54.932 15.343334 0.011728 0.05968 -0.578993
2004-04-01 06:25:49 51°14.432 2°54.909 15.307572 0.011728 0.05968 -0.612702
2004-04-01 06:25:54 51°14.444 2°54.885 15.307572 0.011728 0.05968 -0.612702
2004-04-01 06:25:58 51°14.454 2°54.867 15.268801 0.011728 0.059681 -0.578993
2004-04-01 06:26:04 51°14.469 2°54.84 15.332166 0.011728 0.059682 -0.578993
2004-04-01 06:26:08 51°14.479 2°54.822 15.403472 0.011728 0.059682 -0.612702
2004-04-01 06:26:13 51°14.492 2°54.8 15.410348 0.011728 0.059682 -0.612702
2004-04-01 06:26:18 51°14.506 2°54.778 15.441043 0.011728 0.059683 -0.578993
2004-04-01 06:26:24 51°14.522 2°54.752 15.441043 0.011728 0.059683 -0.578993
2004-04-01 06:26:28 51°14.532 2°54.735 15.422844 0.011728 0.059684 -0.578993
2004-04-01 06:26:34 51°14.548 2°54.708 15.44731 0.011728 0.059684 -0.578993
2004-04-01 06:26:38 51°14.559 2°54.691 15.436202 0.011728 0.059684 -0.612702
2004-04-01 06:26:44 51°14.575 2°54.665 15.431965 0.011728 0.059685 -0.578993
2004-04-01 06:26:48 51°14.586 2°54.647 15.392141 0.011728 0.059686 -0.612702
2004-04-01 06:26:54 51°14.602 2°54.621 15.392141 0.011728 0.059686 -0.612702
2004-04-01 06:26:58 51°14.613 2°54.603 15.373842 0.011728 0.059686 -0.578993
2004-04-01 06:27:04 51°14.629 2°54.577 15.441302 0.011728 0.059687 -0.578993
2004-04-01 06:27:08 51°14.639 2°54.559 15.386042 0.011728 0.059688 -0.578993
2004-04-01 06:27:14 51°14.655 2°54.533 15.408835 0.011728 0.059688 -0.578993
2004-04-01 06:27:18 51°14.666 2°54.515 15.419817 0.011728 0.059688 -0.612702
2004-04-01 06:27:24 51°14.682 2°54.488 15.419817 0.011728 0.059688 -0.612702
2004-04-01 06:27:28 51°14.693 2°54.471 15.427945 0.011832 0.060161 -0.578993
2004-04-01 06:27:34 51°14.709 2°54.444 15.407062 0.011728 0.059689 -0.578993
2004-04-01 06:27:38 51°14.719 2°54.426 15.401223 0.011728 0.05969 -0.578993
2004-04-01 06:27:44 51°14.735 2°54.399 15.392444 0.011728 0.05969 -0.578993
2004-04-01 06:27:48 51°14.746 2°54.381 15.393439 0.011728 0.059691 -0.612702
2004-04-01 06:27:54 51°14.762 2°54.354 15.393439 0.011728 0.059691 -0.612702
2004-04-01 06:27:58 51°14.772 2°54.337 15.408835 0.011728 0.059692 -0.578993
2004-04-01 06:28:02 51°14.783 2°54.319 15.427124 0.011728 0.059692 -0.578993
2004-04-01 06:28:08 51°14.799 2°54.293 15.429199 0.011728 0.059692 -0.578993
2004-04-01 06:28:14 51°14.814 2°54.266 15.382279 0.011728 0.059693 -0.578993
2004-04-01 06:28:18 51°14.825 2°54.248 15.414326 0.011728 0.059693 -0.578993
2004-04-01 06:28:24 51°14.841 2°54.222 15.414326 0.011728 0.059693 -0.578993
2004-04-01 06:28:28 51°14.852 2°54.204 15.412467 0.011728 0.059694 -0.578993
2004-04-01 06:28:33 51°14.865 2°54.183 15.399321 0.011728 0.059694 -0.578993
2004-04-01 06:28:38 51°14.878 2°54.161 15.40931 0.011728 0.059695 -0.578993
2004-04-01 06:28:44 51°14.893 2°54.134 15.394909 0.011728 0.059695 -0.578993
2004-04-01 06:28:48 51°14.904 2°54.117 15.393352 0.011728 0.059696 -0.578993
2004-04-01 06:28:54 51°14.919 2°54.091 15.393352 0.011728 0.059696 -0.578993
2004-04-01 06:28:58 51°14.93 2°54.073 15.434386 0.011728 0.059696 -0.578993
2004-04-01 06:29:04 51°14.945 2°54.047 15.415191 0.011728 0.059696 -0.578993
2004-04-01 06:29:08 51°14.956 2°54.03 15.411213 0.011832 0.060169 -0.578993
2004-04-01 06:29:13 51°14.969 2°54.008 15.390108 0.011728 0.059698 -0.578993
2004-04-01 06:29:18 51°14.982 2°53.986 15.451674 0.011728 0.059699 -0.578993
2004-04-01 06:29:24 51°14.998 2°53.959 15.451674 0.011728 0.059699 -0.578993
2004-04-01 06:29:29 51°15.01 2°53.937 15.416877 0.011728 0.059699 -0.578993
2004-04-01 06:29:33 51°15.021 2°53.919 15.415148 0.011728 0.0597 -0.578993
2004-04-01 06:29:38 51°15.033 2°53.896 15.41238 0.011728 0.0597 -0.545283
2004-04-01 06:29:44 51°15.049 2°53.869 15.433651 0.011728 0.0597 -0.578993
2004-04-01 06:29:48 51°15.059 2°53.851 15.297957 0.011728 0.059701 -0.612702
2004-04-01 06:29:53 51°15.073 2°53.83 15.297957 0.011728 0.059701 -0.612702
2004-04-01 06:29:58 51°15.088 2°53.811 15.262777 0.011728 0.0597 -0.578993
2004-04-01 06:30:04 51°15.107 2°53.79 15.261737 0.011728 0.059701 -0.578993
2004-04-01 06:30:08 51°15.12 2°53.776 15.352509 0.011728 0.059701 -0.578993
2004-04-01 06:30:13 51°15.135 2°53.76 15.368521 0.011728 0.059702 -0.578993
2004-04-01 06:30:18 51°15.152 2°53.745 15.321212 0.011728 0.059702 -0.578993
2004-04-01 06:30:24 51°15.171 2°53.726 15.321212 0.011728 0.059702 -0.578993
2004-04-01 06:30:28 51°15.184 2°53.714 15.345152 0.011728 0.059703 -0.578993
2004-04-01 06:30:33 51°15.201 2°53.699 15.342511 0.011728 0.059703 -0.578993
2004-04-01 06:30:38 51°15.217 2°53.683 15.359607 0.011728 0.059704 -0.578993
2004-04-01 06:30:44 51°15.236 2°53.664 15.334547 0.011728 0.059705 -0.578993
2004-04-01 06:30:48 51°15.249 2°53.651 15.32368 0.011728 0.059705 -0.578993
2004-04-01 06:30:54 51°15.269 2°53.632 15.32368 0.011728 0.059705 -0.578993
2004-04-01 06:30:58 51°15.282 2°53.62 15.34039 0.011728 0.059706 -0.578993
2004-04-01 06:31:04 51°15.301 2°53.601 15.342165 0.011728 0.059706 -0.578993
2004-04-01 06:31:09 51°15.318 2°53.586 15.342685 0.011728 0.059707 -0.612702
2004-04-01 06:31:14 51°15.334 2°53.571 15.354587 0.011728 0.059708 -0.578993
2004-04-01 06:31:18 51°15.348 2°53.559 15.343637 0.011728 0.059708 -0.612702
2004-04-01 06:31:24 51°15.367 2°53.541 15.343637 0.011728 0.059708 -0.612702
2004-04-01 06:31:28 51°15.381 2°53.531 15.260177 0.011728 0.059709 -0.578993
2004-04-01 06:31:34 51°15.402 2°53.515 15.265508 0.011728 0.059709 -0.578993
2004-04-01 06:31:38 51°15.416 2°53.506 15.288167 0.011728 0.059709 -0.612702
2004-04-01 06:31:44 51°15.437 2°53.493 15.263514 0.011728 0.059709 -0.612702
2004-04-01 06:31:48 51°15.452 2°53.485 15.326191 0.011728 0.05971 -0.578993
2004-04-01 06:31:53 51°15.469 2°53.475 15.326191 0.011728 0.05971 -0.578993
2004-04-01 06:31:58 51°15.488 2°53.465 15.292066 0.011728 0.05971 -0.612702
2004-04-01 06:32:04 51°15.509 2°53.453 15.317705 0.011728 0.05971 -0.578993
2004-04-01 06:32:08 51°15.523 2°53.444 15.341949 0.011728 0.059711 -0.612702
2004-04-01 06:32:14 51°15.545 2°53.431 15.32368 0.011728 0.059712 -0.578993
2004-04-01 06:32:18 51°15.559 2°53.423 15.304064 0.011728 0.059713 -0.612702
2004-04-01 06:32:24 51°15.58 2°53.41 15.304064 0.011728 0.059713 -0.612702
2004-04-01 06:32:28 51°15.594 2°53.401 15.342079 0.011728 0.059713 -0.612702
2004-04-01 06:32:33 51°15.612 2°53.39 15.309261 0.011728 0.059714 -0.578993
2004-04-01 06:32:38 51°15.63 2°53.379 15.317142 0.011728 0.059715 -0.578993
2004-04-01 06:32:44 51°15.651 2°53.366 15.346234 0.011728 0.059715 -0.578993
2004-04-01 06:32:48 51°15.665 2°53.358 15.369343 0.011728 0.059716 -0.578993
2004-04-01 06:32:54 51°15.687 2°53.344 15.369343 0.011728 0.059716 -0.578993
2004-04-01 06:32:58 51°15.701 2°53.335 15.326884 0.011728 0.059716 -0.612702
2004-04-01 06:33:04 51°15.722 2°53.322 15.323637 0.011728 0.059716 -0.578993
2004-04-01 06:33:08 51°15.736 2°53.312 15.381976 0.011728 0.059718 -0.578993
2004-04-01 06:33:14 51°15.757 2°53.298 15.319134 0.011728 0.059718 -0.578993
2004-04-01 06:33:18 51°15.771 2°53.289 15.311383 0.011728 0.059718 -0.545283
2004-04-01 06:33:24 51°15.792 2°53.276 15.311383 0.011728 0.059718 -0.545283
2004-04-01 06:33:28 51°15.806 2°53.267 15.320736 0.011728 0.059719 -0.578993
2004-04-01 06:33:34 51°15.827 2°53.253 15.312638 0.011728 0.059719 -0.578993
2004-04-01 06:33:38 51°15.841 2°53.245 15.320692 0.011728 0.05972 -0.612702
2004-04-01 06:33:43 51°15.859 2°53.234 15.341516 0.011728 0.05972 -0.545283
2004-04-01 06:33:48 51°15.876 2°53.223 15.372242 0.011728 0.059721 -0.578993
2004-04-01 06:33:54 51°15.898 2°53.209 15.372242 0.011728 0.059721 -0.578993
2004-04-01 06:33:58 51°15.912 2°53.2 15.367872 0.011728 0.059722 -0.612702
2004-04-01 06:34:04 51°15.933 2°53.186 15.348441 0.011728 0.059722 -0.578993
2004-04-01 06:34:08 51°15.947 2°53.177 15.351038 0.011728 0.059723 -0.578993
2004-04-01 06:34:14 51°15.968 2°53.164 15.33078 0.011728 0.059722 -0.578993
2004-04-01 06:34:18 51°15.982 2°53.154 15.360689 0.011728 0.059723 -0.612702
2004-04-01 06:34:24 51°16.004 2°53.141 15.360689 0.011728 0.059723 -0.612702
2004-04-01 06:34:29 51°16.021 2°53.129 15.379294 0.011728 0.059725 -0.578993
2004-04-01 06:34:34 51°16.039 2°53.118 15.378861 0.011728 0.059725 -0.578993
2004-04-01 06:34:38 51°16.053 2°53.109 15.339741 0.011728 0.059726 -0.578993
2004-04-01 06:34:44 51°16.074 2°53.095 15.280456 0.011728 0.059726 -0.578993
2004-04-01 06:34:48 51°16.089 2°53.087 15.261001 0.011728 0.059726 -0.578993
2004-04-01 06:34:54 51°16.11 2°53.076 15.261001 0.011728 0.059726 -0.578993
2004-04-01 06:34:58 51°16.125 2°53.068 15.30389 0.011728 0.059726 -0.578993
2004-04-01 06:35:04 51°16.146 2°53.057 15.302158 0.011728 0.059728 -0.578993
2004-04-01 06:35:08 51°16.161 2°53.05 15.324156 0.011728 0.059728 -0.612702
2004-04-01 06:35:14 51°16.183 2°53.039 15.34052 0.011728 0.059729 -0.578993
2004-04-01 06:35:18 51°16.197 2°53.032 15.355539 0.011728 0.059729 -0.578993
2004-04-01 06:35:24 51°16.219 2°53.021 15.355539 0.011728 0.059729 -0.578993
2004-04-01 06:35:28 51°16.233 2°53.014 15.347705 0.011728 0.059729 -0.578993
2004-04-01 06:35:34 51°16.255 2°53.004 15.329222 0.011728 0.059731 -0.578993
2004-04-01 06:35:38 51°16.27 2°52.998 15.338053 0.011728 0.059731 -0.578993
2004-04-01 06:35:44 51°16.291 2°52.988 15.354933 0.011728 0.059731 -0.612702
2004-04-01 06:35:49 51°16.31 2°52.979 15.369343 0.011728 0.059732 -0.612702
2004-04-01 06:35:54 51°16.328 2°52.97 15.369343 0.011728 0.059732 -0.612702
2004-04-01 06:35:58 51°16.342 2°52.963 15.351904 0.011728 0.059733 -0.612702
2004-04-01 06:36:02 51°16.356 2°52.956 15.351428 0.011728 0.059733 -0.578993
2004-04-01 06:36:08 51°16.378 2°52.946 15.402261 0.011728 0.059734 -0.578993
2004-04-01 06:36:13 51°16.396 2°52.937 15.322857 0.011728 0.059734 -0.578993
2004-04-01 06:36:18 51°16.414 2°52.929 15.342814 0.011728 0.059735 -0.578993
2004-04-01 06:36:24 51°16.436 2°52.919 15.342814 0.011728 0.059735 -0.578993
2004-04-01 06:36:28 51°16.45 2°52.912 15.374232 0.011728 0.059736 -0.545283
2004-04-01 06:36:34 51°16.471 2°52.901 15.3545 0.011728 0.059736 -0.578993
2004-04-01 06:36:38 51°16.486 2°52.894 15.32723 0.011728 0.059736 -0.612702
2004-04-01 06:36:44 51°16.508 2°52.884 15.349913 0.011728 0.059738 -0.578993
2004-04-01 06:36:48 51°16.522 2°52.877 15.342728 0.011728 0.059738 -0.578993
2004-04-01 06:36:53 51°16.54 2°52.869 15.342728 0.011728 0.059738 -0.578993
2004-04-01 06:36:58 51°16.558 2°52.86 15.354284 0.011728 0.059738 -0.612702
2004-04-01 06:37:04 51°16.58 2°52.849 15.356404 0.011728 0.059739 -0.578993
2004-04-01 06:37:08 51°16.594 2°52.842 15.34948 0.011728 0.05974 -0.578993
2004-04-01 06:37:14 51°16.615 2°52.831 15.319177 0.011728 0.059741 -0.612702
2004-04-01 06:37:18 51°16.629 2°52.824 15.339914 0.011728 0.059741 -0.578993
2004-04-01 06:37:24 51°16.651 2°52.814 15.339914 0.011728 0.059741 -0.578993
2004-04-01 06:37:28 51°16.665 2°52.806 15.347532 0.011728 0.059742 -0.578993
2004-04-01 06:37:34 51°16.686 2°52.796 15.348961 0.011728 0.059742 -0.578993
2004-04-01 06:37:38 51°16.701 2°52.789 15.360862 0.011728 0.059743 -0.578993
2004-04-01 06:37:44 51°16.722 2°52.778 15.388032 0.011728 0.059744 -0.578993
2004-04-01 06:37:48 51°16.736 2°52.771 15.350086 0.011728 0.059744 -0.578993
2004-04-01 06:37:54 51°16.758 2°52.76 15.350086 0.011728 0.059744 -0.578993
2004-04-01 06:37:58 51°16.772 2°52.754 15.34342 0.011728 0.059745 -0.612702
2004-04-01 06:38:04 51°16.793 2°52.743 15.325239 0.011728 0.059745 -0.612702
2004-04-01 06:38:08 51°16.807 2°52.736 15.370814 0.011728 0.059746 -0.545283
2004-04-01 06:38:14 51°16.828 2°52.726 15.346104 0.011728 0.059747 -0.578993
2004-04-01 06:38:18 51°16.842 2°52.718 15.360862 0.011728 0.059747 -0.578993
2004-04-01 06:38:24 51°16.862 2°52.707 15.360862 0.011728 0.059747 -0.578993
2004-04-01 06:38:28 51°16.876 2°52.699 15.385739 0.011728 0.059748 -0.612702
2004-04-01 06:38:33 51°16.894 2°52.691 15.337534 0.011728 0.059749 -0.578993
2004-04-01 06:38:38 51°16.911 2°52.682 15.36441 0.011728 0.059749 -0.612702
2004-04-01 06:38:44 51°16.933 2°52.672 15.325931 0.011728 0.059749 -0.612702
2004-04-01 06:38:48 51°16.947 2°52.665 15.338226 0.011728 0.059751 -0.578993
2004-04-01 06:38:53 51°16.965 2°52.657 15.338226 0.011728 0.059751 -0.578993
2004-04-01 06:38:58 51°16.983 2°52.649 15.311512 0.011728 0.059751 -0.578993
2004-04-01 06:39:04 51°17.005 2°52.64 15.343637 0.011728 0.059751 -0.612702
2004-04-01 06:39:08 51°17.019 2°52.635 15.371939 0.011728 0.059752 -0.578993
2004-04-01 06:39:14 51°17.041 2°52.627 15.330088 0.011728 0.059752 -0.578993
2004-04-01 06:39:18 51°17.056 2°52.621 15.338746 0.011728 0.059753 -0.578993
2004-04-01 06:39:24 51°17.077 2°52.614 15.338746 0.011728 0.059753 -0.578993
2004-04-01 06:39:28 51°17.092 2°52.609 15.348614 0.011728 0.059754 -0.612702
2004-04-01 06:39:33 51°17.11 2°52.603 15.331083 0.011728 0.059754 -0.578993
2004-04-01 06:39:38 51°17.128 2°52.596 15.373193 0.011728 0.059755 -0.578993
2004-04-01 06:39:44 51°17.15 2°52.588 15.359217 0.011728 0.059755 -0.578993
2004-04-01 06:39:49 51°17.167 2°52.581 15.377606 0.011728 0.059757 -0.545283
2004-04-01 06:39:54 51°17.186 2°52.573 15.377606 0.011728 0.059757 -0.545283
2004-04-01 06:39:58 51°17.2 2°52.567 15.333508 0.011728 0.059757 -0.578993
2004-04-01 06:40:04 51°17.221 2°52.559 15.342988 0.011728 0.059757 -0.612702
2004-04-01 06:40:08 51°17.236 2°52.553 15.31082 0.011728 0.059758 -0.578993
2004-04-01 06:40:13 51°17.254 2°52.546 15.356145 0.011728 0.05976 -0.578993
2004-04-01 06:40:18 51°17.272 2°52.539 15.337144 0.011728 0.05976 -0.578993
2004-04-01 06:40:24 51°17.294 2°52.531 15.337144 0.011728 0.05976 -0.578993
2004-04-01 06:40:28 51°17.308 2°52.525 15.356102 0.011728 0.05976 -0.578993
2004-04-01 06:40:33 51°17.326 2°52.518 15.364237 0.011728 0.059761 -0.545283
2004-04-01 06:40:38 51°17.344 2°52.511 15.342641 0.011728 0.059761 -0.578993
2004-04-01 06:40:44 51°17.366 2°52.503 15.332209 0.011728 0.059762 -0.578993
2004-04-01 06:40:48 51°17.381 2°52.497 15.336192 0.011728 0.059763 -0.578993
2004-04-01 06:40:54 51°17.402 2°52.489 15.336192 0.011728 0.059763 -0.578993
2004-04-01 06:40:58 51°17.417 2°52.483 15.37103 0.011728 0.059764 -0.578993
2004-04-01 06:41:04 51°17.439 2°52.475 15.335196 0.011728 0.059764 -0.578993
2004-04-01 06:41:08 51°17.453 2°52.469 15.325672 0.011728 0.059765 -0.578993
2004-04-01 06:41:14 51°17.475 2°52.463 15.302548 0.011728 0.059765 -0.578993
2004-04-01 06:41:18 51°17.49 2°52.458 15.328572 0.011728 0.059765 -0.578993
2004-04-01 06:41:24 51°17.512 2°52.453 15.328572 0.011728 0.059765 -0.578993
2004-04-01 06:41:28 51°17.526 2°52.45 15.331516 0.011728 0.059767 -0.612702
2004-04-01 06:41:34 51°17.549 2°52.446 15.364237 0.011728 0.059768 -0.612702
2004-04-01 06:41:38 51°17.563 2°52.443 15.353332 0.011728 0.059768 -0.578993
2004-04-01 06:41:44 51°17.585 2°52.438 15.36454 0.011728 0.059769 -0.578993
2004-04-01 06:41:48 51°17.6 2°52.435 15.34658 0.011728 0.05977 -0.612702
2004-04-01 06:41:53 51°17.619 2°52.432 15.34658 0.011728 0.05977 -0.612702
2004-04-01 06:41:58 51°17.637 2°52.43 15.323853 0.011728 0.05977 -0.578993
2004-04-01 06:42:04 51°17.659 2°52.428 15.327317 0.011728 0.059771 -0.578993
2004-04-01 06:42:08 51°17.674 2°52.427 15.311686 0.011728 0.059771 -0.612702
2004-04-01 06:42:14 51°17.696 2°52.427 15.306749 0.011728 0.059772 -0.578993
2004-04-01 06:42:18 51°17.711 2°52.426 15.347273 0.011728 0.059773 -0.578993
2004-04-01 06:42:24 51°17.733 2°52.426 15.347273 0.011728 0.059773 -0.578993
2004-04-01 06:42:29 51°17.752 2°52.426 15.336365 0.011728 0.059773 -0.612702
2004-04-01 06:42:34 51°17.77 2°52.425 15.361078 0.011728 0.059774 -0.612702
2004-04-01 06:42:38 51°17.785 2°52.425 15.33762 0.011728 0.059775 -0.578993
2004-04-01 06:42:44 51°17.808 2°52.427 15.312552 0.011728 0.059775 -0.578993
2004-04-01 06:42:48 51°17.822 2°52.428 13.581556 0.011728 0.059794 -0.612702
2004-04-01 06:42:53 51°17.841 2°52.43 13.581556 0.011728 0.059794 -0.612702
2004-04-01 06:42:58 51°17.859 2°52.433 9.973052 0.011728 0.059836 -0.612702
2004-04-01 06:43:04 51°17.881 2°52.436 9.1642 3.728167 25.260425 -0.612702
2004-04-01 06:43:08 51°17.896 2°52.439 8.860626 3.785746 27.567713 -0.578993
2004-04-01 06:43:13 51°17.914 2°52.442 8.830262 4.07041 32.635793 -0.578993
2004-04-01 06:43:19 51°17.936 2°52.448 8.531829 3.694662 31.458844 -0.578993
2004-04-01 06:43:24 51°17.955 2°52.452 8.531829 3.694662 31.458844 -0.578993
2004-04-01 06:43:28 51°17.969 2°52.456 8.431532 3.595734 31.949299 -0.612702
2004-04-01 06:43:34 51°17.991 2°52.461 8.443735 3.528942 31.99044 -0.612702
2004-04-01 06:43:38 51°18.006 2°52.465 8.386349 3.482591 31.919422 -0.578993
2004-04-01 06:43:44 51°18.028 2°52.471 8.348881 3.499662 32.397537 -0.578993
2004-04-01 06:43:48 51°18.042 2°52.474 8.321982 3.467743 32.269803 -0.578993
2004-04-01 06:43:54 51°18.065 2°52.48 8.321982 3.467743 32.269803 -0.578993
2004-04-01 06:43:58 51°18.079 2°52.484 8.313414 3.456683 32.269034 -0.578993
2004-04-01 06:44:04 51°18.101 2°52.49 8.283465 3.440039 32.187807 -0.578993
2004-04-01 06:44:08 51°18.115 2°52.496 8.348448 3.460793 32.45033 -0.612702
2004-04-01 06:44:14 51°18.137 2°52.506 8.367738 3.439725 32.301946 -0.612702
2004-04-01 06:44:18 51°18.151 2°52.514 8.321693 3.43646 32.297373 -0.578993
2004-04-01 06:44:24 51°18.172 2°52.526 8.321693 3.43646 32.297373 -0.578993
2004-04-01 06:44:29 51°18.189 2°52.536 8.252635 3.430455 32.274795 -0.578993
2004-04-01 06:44:34 51°18.206 2°52.547 8.263379 3.426663 32.238977 -0.578993
2004-04-01 06:44:38 51°18.22 2°52.556 8.31197 3.424767 32.204829 -0.612702
2004-04-01 06:44:44 51°18.241 2°52.569 8.255093 3.42266 32.186614 -0.578993
2004-04-01 06:44:48 51°18.255 2°52.578 8.238131 3.423293 32.242342 -0.578993
2004-04-01 06:44:54 51°18.275 2°52.591 8.238131 3.423293 32.242342 -0.578993
2004-04-01 06:44:58 51°18.289 2°52.601 8.243287 3.421186 32.245308 -0.578993
2004-04-01 06:45:04 51°18.308 2°52.617 8.285392 3.420449 32.251238 -0.578993
2004-04-01 06:45:08 51°18.321 2°52.629 8.238757 3.420133 32.269176 -0.612702
2004-04-01 06:45:13 51°18.336 2°52.646 8.240878 3.420871 32.288294 -0.578993
2004-04-01 06:45:18 51°18.351 2°52.663 8.233986 3.420976 32.306888 -0.578993
2004-04-01 06:45:24 51°18.368 2°52.686 8.233986 3.420976 32.306888 -0.578993
2004-04-01 06:45:28 51°18.379 2°52.702 8.260778 3.421081 32.295062 -0.578993
2004-04-01 06:45:34 51°18.394 2°52.728 8.260922 3.422135 32.313706 -0.578993
2004-04-01 06:45:38 51°18.403 2°52.746 8.220248 3.42361 32.346683 -0.545283
2004-04-01 06:45:44 51°18.417 2°52.773 8.182635 3.424347 32.360516 -0.612702
2004-04-01 06:45:48 51°18.427 2°52.791 8.152674 3.424663 32.35468 -0.578993
2004-04-01 06:45:53 51°18.438 2°52.814 8.152674 3.424663 32.35468 -0.578993
2004-04-01 06:45:58 51°18.449 2°52.837 8.120768 3.425611 32.369198 -0.578993
2004-04-01 06:46:04 51°18.462 2°52.865 8.099617 3.426981 32.402651 -0.612702
2004-04-01 06:46:08 51°18.471 2°52.884 8.076768 3.428667 32.444824 -0.612702
2004-04-01 06:46:13 51°18.482 2°52.907 8.058695 3.429299 32.472922 -0.578993
2004-04-01 06:46:18 51°18.493 2°52.931 8.070873 3.430248 32.520525 -0.612702
2004-04-01 06:46:24 51°18.506 2°52.96 8.070873 3.430248 32.520525 -0.612702
2004-04-01 06:46:28 51°18.514 2°52.979 8.082565 3.429616 32.538498 -0.612702
2004-04-01 06:46:34 51°18.526 2°53.009 8.105316 3.430143 32.572571 -0.612702
2004-04-01 06:46:38 51°18.534 2°53.029 8.107247 3.428985 32.584289 -0.578993
2004-04-01 06:46:44 51°18.546 2°53.059 8.109276 3.427615 32.574478 -0.612702
2004-04-01 06:46:48 51°18.554 2°53.079 8.127237 3.426456 32.561482 -0.578993
2004-04-01 06:46:53 51°18.564 2°53.104 8.127237 3.426456 32.561482 -0.578993
2004-04-01 06:46:58 51°18.574 2°53.129 8.122071 3.424981 32.530498 -0.612702
2004-04-01 06:47:04 51°18.586 2°53.159 8.132547 3.42456 32.522972 -0.612702
2004-04-01 06:47:09 51°18.596 2°53.184 8.13081 3.42319 32.506996 -0.578993
2004-04-01 06:47:14 51°18.606 2°53.21 8.139305 3.422242 32.486995 -0.578993
2004-04-01 06:47:18 51°18.614 2°53.229 8.138292 3.421821 32.478709 -0.612702
2004-04-01 06:47:24 51°18.626 2°53.259 8.138292 3.421821 32.478709 -0.612702
2004-04-01 06:47:28 51°18.634 2°53.279 8.151323 3.420346 32.459328 -0.578993
2004-04-01 06:47:33 51°18.644 2°53.304 8.144035 3.419503 32.450452 -0.578993
2004-04-01 06:47:38 51°18.654 2°53.33 8.136264 3.417818 32.435772 -0.578993
2004-04-01 06:47:44 51°18.666 2°53.36 8.138871 3.416975 32.424592 -0.578993
2004-04-01 06:47:49 51°18.675 2°53.386 8.153446 3.416027 32.410002 -0.612702
2004-04-01 06:47:54 51°18.684 2°53.412 8.153446 3.416027 32.410002 -0.612702
2004-04-01 06:47:58 51°18.69 2°53.434 8.152095 3.414974 32.395842 -0.578993
2004-04-01 06:48:04 51°18.7 2°53.466 8.13723 3.414552 32.393707 -0.612702
2004-04-01 06:48:08 51°18.706 2°53.488 8.13805 3.41392 32.390887 -0.578993
2004-04-01 06:48:13 51°18.713 2°53.516 8.146497 3.413288 32.381931 -0.578993
2004-04-01 06:48:18 51°18.72 2°53.543 8.137375 3.412972 32.374771 -0.578993
2004-04-01 06:48:24 51°18.729 2°53.576 8.137375 3.412972 32.374771 -0.578993
2004-04-01 06:48:29 51°18.736 2°53.604 8.144952 3.412551 32.371868 -0.612702
2004-04-01 06:48:34 51°18.744 2°53.631 8.143118 3.412024 32.376289 -0.578993
2004-04-01 06:48:38 51°18.75 2°53.653 8.150551 3.411813 32.371003 -0.578993
2004-04-01 06:48:44 51°18.758 2°53.686 8.148717 3.410549 32.360759 -0.578993
2004-04-01 06:48:48 51°18.764 2°53.708 8.150551 3.409707 32.352652 -0.545283
2004-04-01 06:48:54 51°18.773 2°53.741 8.150551 3.409707 32.352652 -0.545283
2004-04-01 06:48:58 51°18.78 2°53.763 8.156535 3.408548 32.341983 -0.612702
2004-04-01 06:49:04 51°18.789 2°53.796 8.157838 3.407495 32.328594 -0.578993
2004-04-01 06:49:08 51°18.795 2°53.818 8.153012 3.325124 31.459255 -0.578993
2004-04-01 06:49:14 51°18.804 2°53.851 8.15224 3.398435 32.231707 -0.612702
2004-04-01 06:49:18 51°18.81 2°53.873 8.15113 3.404229 32.291921 -0.578993
2004-04-01 06:49:24 51°18.819 2°53.906 8.15113 3.404229 32.291921 -0.578993
2004-04-01 06:49:28 51°18.825 2°53.927 8.150454 3.403702 32.284083 -0.578993
2004-04-01 06:49:34 51°18.834 2°53.96 8.1478 3.403386 32.283815 -0.612702
2004-04-01 06:49:38 51°18.84 2°53.982 8.144132 3.403492 32.283394 -0.578993
2004-04-01 06:49:44 51°18.85 2°54.015 8.138292 3.403386 32.282286 -0.578993
2004-04-01 06:49:48 51°18.856 2°54.037 8.132934 3.403176 32.283126 -0.612702
2004-04-01 06:49:54 51°18.865 2°54.07 8.132934 3.403176 32.283126 -0.612702
2004-04-01 06:49:58 51°18.871 2°54.092 8.135251 3.403386 32.285344 -0.612702
2004-04-01 06:50:04 51°18.881 2°54.125 8.134285 3.403808 32.298194 -0.578993
2004-04-01 06:50:08 51°18.887 2°54.147 8.133947 3.403281 32.296474 -0.612702
2004-04-01 06:50:14 51°18.897 2°54.18 8.133609 3.403176 32.296895 -0.578993
2004-04-01 06:50:18 51°18.903 2°54.202 8.136409 3.402438 32.293722 -0.578993
2004-04-01 06:50:24 51°18.912 2°54.235 8.136409 3.402438 32.293722 -0.578993
2004-04-01 06:50:29 51°18.92 2°54.262 8.136795 3.401596 32.284846 -0.612702
2004-04-01 06:50:34 51°18.928 2°54.289 8.139257 3.400753 32.276736 -0.612702
2004-04-01 06:50:38 51°18.934 2°54.311 8.131582 3.400016 32.269735 -0.578993
2004-04-01 06:50:44 51°18.943 2°54.344 8.140222 3.398646 32.256843 -0.578993
2004-04-01 06:50:49 51°18.951 2°54.372 8.12912 3.397909 32.249842 -0.578993
2004-04-01 06:50:54 51°18.959 2°54.399 8.12912 3.397909 32.249842 -0.578993
2004-04-01 06:50:58 51°18.965 2°54.421 8.129554 3.397593 32.244221 -0.578993
2004-04-01 06:51:04 51°18.975 2°54.453 8.131534 3.397066 32.24326 -0.612702
2004-04-01 06:51:08 51°18.981 2°54.475 8.131534 3.396434 32.237368 -0.612702
2004-04-01 06:51:14 51°18.991 2°54.508 8.135251 3.396118 32.23404 -0.612702
2004-04-01 06:51:18 51°18.997 2°54.53 8.129844 3.395697 32.232659 -0.578993
2004-04-01 06:51:24 51°19.007 2°54.562 8.129844 3.395697 32.232659 -0.578993
2004-04-01 06:51:29 51°19.015 2°54.589 8.132113 3.39517 32.227112 -0.612702
2004-04-01 06:51:34 51°19.023 2°54.617 8.131582 3.394538 32.220455 -0.578993
2004-04-01 06:51:38 51°19.029 2°54.638 8.127479 3.393906 32.214563 -0.578993
2004-04-01 06:51:44 51°19.039 2°54.671 8.136844 3.39359 32.211998 -0.578993
2004-04-01 06:51:48 51°19.045 2°54.693 8.133175 3.393169 32.207561 -0.578993
2004-04-01 06:51:54 51°19.055 2°54.725 8.133175 3.393169 32.207561 -0.578993
2004-04-01 06:51:58 51°19.061 2°54.746 8.129748 3.392853 32.206523 -0.612702
2004-04-01 06:52:04 51°19.071 2°54.779 8.137712 3.392326 32.202503 -0.578993
2004-04-01 06:52:08 51°19.077 2°54.801 8.134092 3.39201 32.198412 -0.578993
2004-04-01 06:52:14 51°19.087 2°54.833 8.136313 3.39201 32.196885 -0.578993
2004-04-01 06:52:18 51°19.093 2°54.855 8.142153 3.39201 32.196885 -0.578993
2004-04-01 06:52:24 51°19.103 2°54.887 8.142153 3.39201 32.196885 -0.578993
2004-04-01 06:52:28 51°19.11 2°54.909 8.142491 3.39201 32.199175 -0.578993
2004-04-01 06:52:34 51°19.119 2°54.941 8.141719 3.391905 32.197302 -0.578993
2004-04-01 06:52:38 51°19.126 2°54.963 8.14307 3.391694 32.192794 -0.578993
2004-04-01 06:52:44 51°19.135 2°54.995 8.144277 3.391589 32.191684 -0.578993
2004-04-01 06:52:48 51°19.142 2°55.017 8.142974 3.391378 32.187939 -0.612702
2004-04-01 06:52:54 51°19.151 2°55.05 8.142974 3.391378 32.187939 -0.612702
2004-04-01 06:52:58 51°19.158 2°55.071 8.149923 3.391483 32.189812 -0.612702
2004-04-01 06:53:04 51°19.167 2°55.104 8.146883 3.391273 32.185304 -0.578993
2004-04-01 06:53:09 51°19.175 2°55.131 8.149151 3.391483 32.18676 -0.578993
2004-04-01 06:53:14 51°19.183 2°55.158 8.150599 3.391062 32.182323 -0.578993
2004-04-01 06:53:18 51°19.189 2°55.18 8.152047 3.390746 32.17747 -0.612702
2004-04-01 06:53:24 51°19.199 2°55.213 8.152047 3.390746 32.17747 -0.612702
2004-04-01 06:53:28 51°19.205 2°55.234 8.154701 3.390746 32.17747 -0.612702
2004-04-01 06:53:34 51°19.215 2°55.267 8.158127 3.390535 32.174489 -0.612702
2004-04-01 06:53:38 51°19.222 2°55.288 8.154798 3.39043 32.171855 -0.578993
2004-04-01 06:53:44 51°19.232 2°55.321 8.159719 3.389903 32.16631 -0.578993
2004-04-01 06:53:48 51°19.238 2°55.342 8.160685 3.390114 32.165479 -0.612702
2004-04-01 06:53:53 51°19.246 2°55.37 8.160685 3.390114 32.165479 -0.612702
2004-04-01 06:53:58 51°19.254 2°55.397 8.168163 3.389798 32.162152 -0.578993
2004-04-01 06:54:04 51°19.264 2°55.429 8.163821 3.389798 32.160628 -0.578993
2004-04-01 06:54:08 51°19.27 2°55.451 8.164641 3.389798 32.159866 -0.612702
2004-04-01 06:54:14 51°19.28 2°55.483 8.167874 3.389377 32.154669 -0.578993
2004-04-01 06:54:18 51°19.286 2°55.505 8.170431 3.389482 32.154253 -0.612702
2004-04-01 06:54:24 51°19.296 2°55.538 8.170431 3.389482 32.154253 -0.612702
2004-04-01 06:54:28 51°19.302 2°55.56 8.176799 3.389166 32.14788 -0.612702
2004-04-01 06:54:34 51°19.311 2°55.592 8.177281 3.388955 32.146425 -0.578993
2004-04-01 06:54:38 51°19.318 2°55.614 8.181574 3.38906 32.14601 -0.612702
2004-04-01 06:54:44 51°19.328 2°55.647 8.183793 3.388534 32.139706 -0.612702
2004-04-01 06:54:48 51°19.334 2°55.669 8.184565 3.388428 32.134791 -0.612702
2004-04-01 06:54:54 51°19.344 2°55.701 8.184565 3.388428 32.134791 -0.612702
2004-04-01 06:54:58 51°19.35 2°55.723 8.186398 3.388007 32.128075 -0.612702
2004-04-01 06:55:04 51°19.36 2°55.755 8.187604 3.387586 32.121359 -0.578993
2004-04-01 06:55:08 51°19.366 2°55.778 8.188086 3.387691 32.119425 -0.578993
2004-04-01 06:55:14 51°19.376 2°55.81 8.187604 3.387059 32.111256 -0.578993
2004-04-01 06:55:18 51°19.382 2°55.832 8.191221 3.386848 32.10904 -0.612702
2004-04-01 06:55:24 51°19.392 2°55.865 8.191221 3.386848 32.10904 -0.612702
2004-04-01 06:55:28 51°19.399 2°55.887 8.192475 3.386743 32.107172 -0.578993
2004-04-01 06:55:34 51°19.408 2°55.92 8.192427 3.386427 32.103088 -0.612702
2004-04-01 06:55:38 51°19.415 2°55.941 8.190835 3.386216 32.100112 -0.578993
2004-04-01 06:55:44 51°19.424 2°55.974 8.199805 3.38569 32.093053 -0.612702
2004-04-01 06:55:48 51°19.43 2°55.996 8.192668 3.385373 32.08897 -0.612702
2004-04-01 06:55:54 51°19.44 2°56.029 8.192668 3.385373 32.08897 -0.612702
2004-04-01 06:55:58 51°19.446 2°56.05 8.196092 3.385057 32.085647 -0.578993
2004-04-01 06:56:04 51°19.456 2°56.083 8.19479 3.384531 32.080869 -0.578993
2004-04-01 06:56:09 51°19.465 2°56.11 8.190835 3.384215 32.074508 -0.612702
2004-04-01 06:56:14 51°19.473 2°56.137 8.192619 3.384004 32.073052 -0.578993
2004-04-01 06:56:18 51°19.48 2°56.159 8.19151 3.383056 32.064603 -0.612702
2004-04-01 06:56:24 51°19.489 2°56.191 8.19151 3.383056 32.064603 -0.612702
2004-04-01 06:56:28 51°19.496 2°56.213 8.189774 3.382951 32.063495 -0.612702
2004-04-01 06:56:34 51°19.506 2°56.246 8.192812 3.382424 32.057198 -0.578993
2004-04-01 06:56:38 51°19.512 2°56.268 8.184854 3.381792 32.051312 -0.612702
2004-04-01 06:56:44 51°19.522 2°56.3 8.183793 3.381371 32.0484 -0.578993
2004-04-01 06:56:48 51°19.528 2°56.322 8.187266 3.380949 32.043211 -0.578993
2004-04-01 06:56:54 51°19.538 2°56.355 8.187266 3.380949 32.043211 -0.578993
2004-04-01 06:56:58 51°19.545 2°56.376 8.188713 3.379791 32.034822 -0.578993
2004-04-01 06:57:04 51°19.554 2°56.409 8.196285 3.379896 32.036688 -0.612702
2004-04-01 06:57:08 51°19.56 2°56.431 8.193246 3.379159 32.030452 -0.612702
2004-04-01 06:57:14 51°19.57 2°56.463 8.195754 3.378948 32.027479 -0.578993
2004-04-01 06:57:18 51°19.577 2°56.485 8.193198 3.378737 32.024505 -0.578993
2004-04-01 06:57:24 51°19.587 2°56.518 8.193198 3.378737 32.024505 -0.578993
2004-04-01 06:57:28 51°19.593 2°56.539 8.190546 3.378421 32.019666 -0.578993
2004-04-01 06:57:34 51°19.603 2°56.572 8.19479 3.378527 32.020015 -0.612702
2004-04-01 06:57:38 51°19.61 2°56.594 8.194259 3.378632 32.019606 -0.612702
2004-04-01 06:57:44 51°19.619 2°56.626 8.195127 3.378421 32.017392 -0.612702
2004-04-01 06:57:48 51°19.626 2°56.648 8.195224 3.378 32.015994 -0.578993
2004-04-01 06:57:54 51°19.635 2°56.681 8.195224 3.378 32.015994 -0.578993
2004-04-01 06:57:58 51°19.642 2°56.703 8.193825 3.377789 32.012263 -0.612702
2004-04-01 06:58:04 51°19.652 2°56.735 8.196526 3.377579 32.010049 -0.612702
2004-04-01 06:58:08 51°19.658 2°56.757 8.195513 3.376947 32.001131 -0.612702
2004-04-01 06:58:14 51°19.668 2°56.79 8.195513 3.376209 31.994896 -0.612702
2004-04-01 06:58:18 51°19.674 2°56.811 8.194741 3.375893 31.992331 -0.612702
2004-04-01 06:58:24 51°19.684 2°56.844 8.194741 3.375893 31.992331 -0.612702
2004-04-01 06:58:28 51°19.69 2°56.866 8.194404 3.375261 31.983416 -0.612702
2004-04-01 06:58:33 51°19.698 2°56.893 8.19778 3.37484 31.980501 -0.612702
2004-04-01 06:58:38 51°19.706 2°56.92 8.197346 3.374313 31.974208 -0.612702
2004-04-01 06:58:44 51°19.716 2°56.953 8.199467 3.373997 31.972401 -0.612702
2004-04-01 06:58:48 51°19.722 2°56.975 8.201734 3.373576 31.967215 -0.612702
2004-04-01 06:58:54 51°19.732 2°57.008 8.201734 3.373576 31.967215 -0.612702
2004-04-01 06:58:58 51°19.738 2°57.03 8.20265 3.373365 31.964244 -0.612702
2004-04-01 06:59:04 51°19.748 2°57.062 8.202698 3.373365 31.965758 -0.578993
2004-04-01 06:59:08 51°19.754 2°57.084 8.20265 3.373576 31.964945 -0.612702
2004-04-01 06:59:14 51°19.764 2°57.117 8.204482 3.37326 31.96238 -0.578993
2004-04-01 06:59:18 51°19.77 2°57.139 8.204193 3.373049 31.95714 -0.612702
2004-04-01 06:59:23 51°19.778 2°57.166 8.204193 3.373049 31.95714 -0.612702
2004-04-01 06:59:28 51°19.786 2°57.194 8.204386 3.373155 31.95749 -0.578993
2004-04-01 06:59:34 51°19.796 2°57.227 8.20482 3.372944 31.957546 -0.578993
2004-04-01 06:59:38 51°19.802 2°57.249 8.206749 3.372523 31.952361 -0.578993
2004-04-01 06:59:44 51°19.812 2°57.281 8.208243 3.372628 31.951955 -0.612702
2004-04-01 06:59:48 51°19.818 2°57.303 8.208002 3.372523 31.949336 -0.578993
2004-04-01 06:59:53 51°19.826 2°57.33 8.208002 3.372523 31.949336 -0.578993
2004-04-01 06:59:58 51°19.834 2°57.357 8.209256 3.372312 31.94561 -0.612702
2004-04-01 07:00:04 51°19.844 2°57.39 8.21321 3.372207 31.946772 -0.578993
2004-04-01 07:00:09 51°19.851 2°57.417 8.209979 3.372207 31.944503 -0.612702
2004-04-01 07:00:14 51°19.859 2°57.445 8.208726 3.37168 31.937457 -0.612702
2004-04-01 07:00:18 51°19.866 2°57.467 8.210076 3.371259 31.933786 -0.578993
2004-04-01 07:00:24 51°19.875 2°57.5 8.210076 3.371259 31.933786 -0.578993
2004-04-01 07:00:28 51°19.882 2°57.521 8.208051 3.371364 31.934893 -0.612702
2004-04-01 07:00:34 51°19.891 2°57.554 8.207858 3.371048 31.930817 -0.578993
2004-04-01 07:00:38 51°19.898 2°57.576 8.207713 3.371153 31.931924 -0.612702
2004-04-01 07:00:42 51°19.904 2°57.598 8.206556 3.370627 31.92639 -0.612702
2004-04-01 07:00:49 51°19.914 2°57.637 8.208629 3.370837 31.92936 -0.578993
2004-04-01 07:00:54 51°19.921 2°57.665 8.208629 3.370837 31.92936 -0.578993
2004-04-01 07:00:58 51°19.927 2°57.687 8.203904 3.370732 31.928253 -0.578993
2004-04-01 07:01:04 51°19.935 2°57.721 8.201637 3.370416 31.926444 -0.612702
2004-04-01 07:01:08 51°19.941 2°57.744 8.201782 3.371048 31.932329 -0.578993
2004-04-01 07:01:14 51°19.949 2°57.777 8.201734 3.371575 31.940131 -0.612702
2004-04-01 07:01:18 51°19.954 2°57.799 8.195513 3.371575 31.940131 -0.578993
2004-04-01 07:01:24 51°19.963 2°57.833 8.195513 3.371575 31.940131 -0.578993
2004-04-01 07:01:28 51°19.968 2°57.855 8.195851 3.372417 31.950498 -0.612702
2004-04-01 07:01:33 51°19.975 2°57.884 8.192234 3.37326 31.960867 -0.612702
2004-04-01 07:01:38 51°19.982 2°57.912 8.189388 3.374208 31.971587 -0.578993
2004-04-01 07:01:44 51°19.99 2°57.945 8.188231 3.375367 31.986038 -0.578993
2004-04-01 07:01:48 51°19.995 2°57.967 8.190063 3.376209 31.996411 -0.646411
2004-04-01 07:01:53 51°20.003 2°57.995 8.190063 3.376209 31.996411 -0.646411
2004-04-01 07:01:58 51°20.009 2°58.023 8.189774 3.377368 32.012382 -0.578993
2004-04-01 07:02:04 51°20.018 2°58.057 8.188568 3.378105 32.021652 -0.612702
2004-04-01 07:02:08 51°20.023 2°58.079 8.188375 3.378738 32.032091 -0.612702
2004-04-01 07:02:14 51°20.031 2°58.113 8.184902 3.379054 32.035414 -0.578993
2004-04-01 07:02:18 51°20.037 2°58.135 8.183986 3.379896 32.043518 -0.646411
2004-04-01 07:02:23 51°20.044 2°58.163 8.183986 3.379896 32.043518 -0.646411
2004-04-01 07:02:29 51°20.052 2°58.196 8.180899 3.379791 32.04241 -0.612702
2004-04-01 07:02:34 51°20.059 2°58.224 8.177281 3.380002 32.047662 -0.612702
2004-04-01 07:02:38 51°20.064 2°58.247 8.168211 3.380107 32.048011 -0.578993
2004-04-01 07:02:44 51°20.073 2°58.28 8.160299 3.379475 32.042881 -0.612702
2004-04-01 07:02:48 51°20.079 2°58.302 8.158947 3.378211 32.031104 -0.578993
2004-04-01 07:02:53 51°20.085 2°58.33 8.158947 3.378211 32.031104 -0.578993
2004-04-01 07:02:58 51°20.092 2°58.358 8.157838 3.377579 32.027492 -0.612702
2004-04-01 07:03:04 51°20.1 2°58.391 8.155763 3.37621 32.01764 -0.612702
2004-04-01 07:03:08 51°20.106 2°58.414 8.159816 3.37463 32.007846 -0.612702
2004-04-01 07:03:14 51°20.114 2°58.447 8.158127 3.372944 31.995423 -0.612702
2004-04-01 07:03:18 51°20.12 2°58.469 8.160154 3.371154 31.979615 -0.612702
2004-04-01 07:03:24 51°20.128 2°58.502 8.160154 3.371154 31.979615 -0.612702
2004-04-01 07:03:28 51°20.134 2°58.524 8.169273 3.369784 31.967481 -0.612702
2004-04-01 07:03:34 51°20.142 2°58.558 8.174435 3.367994 31.947124 -0.578993
2004-04-01 07:03:38 51°20.147 2°58.58 8.182877 3.365782 31.92461 -0.612702
2004-04-01 07:03:44 51°20.156 2°58.613 8.186398 3.362832 31.892829 -0.612702
2004-04-01 07:03:48 51°20.161 2°58.635 8.192282 3.361568 31.875755 -0.612702
2004-04-01 07:03:54 51°20.17 2°58.669 8.192282 3.361568 31.875755 -0.612702
2004-04-01 07:03:58 51°20.175 2°58.691 8.191607 3.359778 31.851639 -0.578993
2004-04-01 07:04:04 51°20.184 2°58.724 8.192282 3.35746 31.822751 -0.612702
2004-04-01 07:04:08 51°20.19 2°58.746 8.193005 3.355564 31.797549 -0.612702
2004-04-01 07:04:13 51°20.196 2°58.774 8.191076 3.354722 31.784176 -0.612702
2004-04-01 07:04:18 51°20.203 2°58.802 8.190835 3.353247 31.76492 -0.612702
2004-04-01 07:04:24 51°20.211 2°58.836 8.190835 3.353247 31.76492 -0.612702
2004-04-01 07:04:28 51°20.216 2°58.859 8.189919 3.352088 31.751997 -0.612702
2004-04-01 07:04:33 51°20.222 2°58.887 8.189677 3.35114 31.740536 -0.578993
2004-04-01 07:04:38 51°20.228 2°58.915 8.192282 3.349982 31.731373 -0.612702
2004-04-01 07:04:44 51°20.235 2°58.949 8.194404 3.349139 31.72102 -0.578993
2004-04-01 07:04:49 51°20.241 2°58.978 8.198117 3.348402 31.71553 -0.612702
2004-04-01 07:04:54 51°20.247 2°59.006 8.198117 3.348402 31.71553 -0.612702
2004-04-01 07:04:58 51°20.252 2°59.029 8.204724 3.347454 31.705574 -0.578993
2004-04-01 07:05:04 51°20.259 2°59.063 8.209835 3.346401 31.693761 -0.612702
2004-04-01 07:05:08 51°20.263 2°59.086 8.218947 3.345558 31.682661 -0.612702
2004-04-01 07:05:14 51°20.271 2°59.12 8.224249 3.345031 31.67563 -0.612702
2004-04-01 07:05:18 51°20.275 2°59.143 8.226033 3.344399 31.665245 -0.646411
2004-04-01 07:05:24 51°20.282 2°59.178 8.226033 3.344399 31.665245 -0.646411
2004-04-01 07:05:28 51°20.287 2°59.201 8.226177 3.343451 31.650797 -0.578993
2004-04-01 07:05:34 51°20.295 2°59.235 8.221791 3.343451 31.644055 -0.612702
2004-04-01 07:05:38 51°20.3 2°59.258 8.210413 3.342082 31.625194 -0.578993
2004-04-01 07:05:44 51°20.308 2°59.292 8.186301 3.34166 31.617781 -0.612702
2004-04-01 07:05:48 51°20.313 2°59.314 8.149682 3.341134 31.61076 -0.646411
2004-04-01 07:05:54 51°20.32 2°59.349 8.149682 3.341134 31.61076 -0.646411
2004-04-01 07:05:58 51°20.325 2°59.372 8.104301 3.340607 31.605236 -0.612702
2004-04-01 07:06:04 51°20.332 2°59.406 8.063721 3.339765 31.601631 -0.612702
2004-04-01 07:06:08 51°20.337 2°59.428 8.030224 3.339238 31.607327 -0.612702
2004-04-01 07:06:14 51°20.345 2°59.463 8.002707 3.337237 31.609526 -0.612702
2004-04-01 07:06:18 51°20.35 2°59.485 7.985146 3.335236 31.61623 -0.612702
2004-04-01 07:06:24 51°20.358 2°59.519 7.985146 3.335236 31.61623 -0.612702
2004-04-01 07:06:29 51°20.364 2°59.548 7.973823 3.333551 31.627775 -0.612702
2004-04-01 07:06:34 51°20.37 2°59.576 7.951413 3.330708 31.630907 -0.612702
2004-04-01 07:06:37 51°20.374 2°59.593 7.939988 3.328391 31.635839 -0.578993
2004-04-01 07:06:44 51°20.382 2°59.633 7.936743 3.325758 31.633686 -0.578993
2004-04-01 07:06:48 51°20.388 2°59.656 7.926381 3.32302 31.623639 -0.612702
2004-04-01 07:06:53 51°20.394 2°59.684 7.926381 3.32302 31.623639 -0.612702
2004-04-01 07:06:58 51°20.4 2°59.712 7.917808 3.320176 31.607951 -0.612702
2004-04-01 07:07:04 51°20.408 2°59.747 7.913594 3.317649 31.593328 -0.612702
2004-04-01 07:07:08 51°20.413 2°59.77 7.907878 3.315226 31.581316 -0.612702
2004-04-01 07:07:13 51°20.419 2°59.798 7.905166 3.313647 31.570661 -0.578993
2004-04-01 07:07:18 51°20.425 2°59.827 7.899449 3.31133 31.556737 -0.612702
2004-04-01 07:07:24 51°20.433 2°59.861 7.899449 3.31133 31.556737 -0.612702
2004-04-01 07:07:28 51°20.438 2°59.883 7.895137 3.310382 31.549737 -0.612702
2004-04-01 07:07:34 51°20.445 2°59.918 7.897027 3.309645 31.548729 -0.612702
2004-04-01 07:07:38 51°20.45 2°59.94 7.888886 3.309118 31.546933 -0.578993
2004-04-01 07:07:44 51°20.458 2°59.974 7.883411 3.309013 31.550342 -0.612702
2004-04-01 07:07:48 51°20.463 2°59.997 7.882005 3.308802 31.551885 -0.612702
2004-04-01 07:07:54 51°20.47 3°0.031 7.882005 3.308802 31.551885 -0.612702
2004-04-01 07:07:58 51°20.475 3°0.054 7.88026 3.308802 31.557163 -0.612702
2004-04-01 07:08:04 51°20.483 3°0.088 7.875656 3.308592 31.556444 -0.612702
2004-04-01 07:08:09 51°20.49 3°0.116 7.872748 3.308381 31.558743 -0.578993
2004-04-01 07:08:14 51°20.496 3°0.145 7.861115 3.308381 31.56327 -0.612702
2004-04-01 07:08:18 51°20.501 3°0.167 7.861163 3.308065 31.563702 -0.578993
2004-04-01 07:08:24 51°20.509 3°0.202 7.861163 3.308065 31.563702 -0.578993
2004-04-01 07:08:28 51°20.514 3°0.224 7.851273 3.30817 31.567835 -0.612702
2004-04-01 07:08:33 51°20.52 3°0.253 7.845794 3.30796 31.567117 -0.612702
2004-04-01 07:08:38 51°20.527 3°0.282 7.834738 3.307749 31.573195 -0.612702
2004-04-01 07:08:44 51°20.534 3°0.315 7.82853 3.307328 31.573269 -0.646411
2004-04-01 07:08:48 51°20.539 3°0.338 7.82916 3.306696 31.571115 -0.612702
2004-04-01 07:08:52 51°20.544 3°0.361 7.82916 3.306696 31.571115 -0.612702
2004-04-01 07:08:58 51°20.552 3°0.395 7.820963 3.306064 31.570471 -0.612702
2004-04-01 07:09:04 51°20.559 3°0.429 7.819896 3.304695 31.562778 -0.612702
2004-04-01 07:09:08 51°20.564 3°0.452 7.814171 3.304063 31.561378 -0.612702
2004-04-01 07:09:13 51°20.571 3°0.48 7.811843 3.303221 31.557747 -0.612702
2004-04-01 07:09:18 51°20.577 3°0.508 7.81519 3.302062 31.548502 -0.612702
2004-04-01 07:09:24 51°20.585 3°0.542 7.81519 3.302062 31.548502 -0.612702
2004-04-01 07:09:29 51°20.591 3°0.571 7.804808 3.30143 31.545588 -0.612702
2004-04-01 07:09:34 51°20.598 3°0.599 7.80112 3.300798 31.544185 -0.578993
2004-04-01 07:09:38 51°20.602 3°0.622 7.800683 3.300272 31.540875 -0.612702
2004-04-01 07:09:44 51°20.61 3°0.656 7.802236 3.300483 31.546129 -0.578993
2004-04-01 07:09:48 51°20.614 3°0.679 7.80078 3.300272 31.547678 -0.646411
2004-04-01 07:09:53 51°20.619 3°0.708 7.80078 3.300272 31.547678 -0.646411
2004-04-01 07:09:58 51°20.624 3°0.737 7.79554 3.300272 31.54919 -0.612702
2004-04-01 07:10:04 51°20.63 3°0.772 7.799616 3.299745 31.545879 -0.612702
2004-04-01 07:10:08 51°20.633 3°0.795 7.791706 3.299324 31.542171 -0.646411
2004-04-01 07:10:13 51°20.638 3°0.825 7.791803 3.299114 31.539939 -0.646411
2004-04-01 07:10:18 51°20.642 3°0.854 7.784329 3.299008 31.541848 -0.646411
2004-04-01 07:10:24 51°20.648 3°0.889 7.784329 3.299008 31.541848 -0.646411
2004-04-01 07:10:29 51°20.652 3°0.918 7.780155 3.298482 31.53778 -0.612702
2004-04-01 07:10:34 51°20.657 3°0.947 7.780883 3.298692 31.54228 -0.612702
2004-04-01 07:10:38 51°20.66 3°0.971 7.779087 3.298903 31.546025 -0.612702
2004-04-01 07:10:44 51°20.666 3°1.006 7.76967 3.299114 31.55431 -0.612702
2004-04-01 07:10:48 51°20.669 3°1.029 7.771417 3.29964 31.562163 -0.612702
2004-04-01 07:10:53 51°20.674 3°1.059 7.771417 3.29964 31.562163 -0.612702
2004-04-01 07:10:58 51°20.679 3°1.088 7.765931 3.300904 31.577834 -0.612702
2004-04-01 07:11:04 51°20.684 3°1.123 7.761902 3.302273 31.593868 -0.612702
2004-04-01 07:11:09 51°20.689 3°1.152 7.755347 3.303537 31.61182 -0.578993
2004-04-01 07:11:14 51°20.693 3°1.182 7.756804 3.303748 31.617088 -0.612702
2004-04-01 07:11:18 51°20.697 3°1.205 7.750637 3.30438 31.626826 -0.578993
2004-04-01 07:11:24 51°20.703 3°1.24 7.750637 3.30438 31.626826 -0.578993
2004-04-01 07:11:28 51°20.706 3°1.264 7.74816 3.304275 31.629504 -0.612702
2004-04-01 07:11:34 51°20.712 3°1.299 7.740535 3.305012 31.640364 -0.612702
2004-04-01 07:11:38 51°20.715 3°1.323 7.739175 3.305117 31.646039 -0.578993
2004-04-01 07:11:44 51°20.721 3°1.358 7.737281 3.305117 31.649078 -0.612702
2004-04-01 07:11:48 51°20.725 3°1.382 7.738107 3.304696 31.646886 -0.612702
2004-04-01 07:11:54 51°20.73 3°1.416 7.738107 3.304696 31.646886 -0.612702
2004-04-01 07:11:58 51°20.734 3°1.44 7.736698 3.30438 31.647331 -0.612702
2004-04-01 07:12:04 51°20.74 3°1.475 7.732569 3.303854 31.645541 -0.612702
2004-04-01 07:12:08 51°20.744 3°1.498 7.735727 3.303116 31.639994 -0.612702
2004-04-01 07:12:13 51°20.749 3°1.527 7.729801 3.302063 31.631851 -0.612702
2004-04-01 07:12:18 51°20.754 3°1.556 7.723922 3.302063 31.634131 -0.612702
2004-04-01 07:12:24 51°20.76 3°1.591 7.723922 3.302063 31.634131 -0.612702
2004-04-01 07:12:28 51°20.764 3°1.615 7.725088 3.301431 31.62818 -0.578993
2004-04-01 07:12:33 51°20.769 3°1.644 7.725866 3.300378 31.618517 -0.578993
2004-04-01 07:12:38 51°20.774 3°1.674 7.719647 3.29922 31.606975 -0.612702
2004-04-01 07:12:44 51°20.78 3°1.709 7.71921 3.298482 31.600665 -0.578993
2004-04-01 07:12:48 51°20.784 3°1.733 7.717947 3.298377 31.602584 -0.612702
2004-04-01 07:12:53 51°20.789 3°1.762 7.717947 3.298377 31.602584 -0.612702
2004-04-01 07:12:58 51°20.794 3°1.791 7.716246 3.298377 31.604863 -0.612702
2004-04-01 07:13:04 51°20.8 3°1.826 7.710464 3.298377 31.605622 -0.612702
2004-04-01 07:13:08 51°20.804 3°1.85 7.71027 3.298693 31.610497 -0.578993
2004-04-01 07:13:14 51°20.81 3°1.884 7.706285 3.298693 31.611257 -0.612702
2004-04-01 07:13:18 51°20.814 3°1.908 7.711096 3.298588 31.613177 -0.612702
2004-04-01 07:13:24 51°20.82 3°1.943 7.711096 3.298588 31.613177 -0.612702
2004-04-01 07:13:28 51°20.824 3°1.967 7.706868 3.298799 31.619215 -0.612702
2004-04-01 07:13:33 51°20.829 3°1.996 7.701911 3.298799 31.620735 -0.578993
2004-04-01 07:13:38 51°20.834 3°2.025 7.70473 3.29922 31.625971 -0.612702
2004-04-01 07:13:44 51°20.84 3°2.06 7.701717 3.299115 31.626373 -0.612702
2004-04-01 07:13:48 51°20.844 3°2.083 7.705896 3.299115 31.628654 -0.612702
2004-04-01 07:13:54 51°20.849 3°2.119 7.705896 3.299115 31.628654 -0.612702
2004-04-01 07:13:58 51°20.853 3°2.142 7.699044 3.298904 31.627937 -0.612702
2004-04-01 07:14:04 51°20.857 3°2.178 7.699822 3.298904 31.630218 -0.578993
2004-04-01 07:14:08 51°20.86 3°2.202 7.704341 3.298588 31.6261 -0.612702
2004-04-01 07:14:14 51°20.862 3°2.238 7.699481 3.298483 31.62346 -0.612702
2004-04-01 07:14:18 51°20.864 3°2.262 7.705751 3.298904 31.627937 -0.612702
2004-04-01 07:14:24 51°20.865 3°2.299 7.705751 3.298904 31.627937 -0.612702
2004-04-01 07:14:28 51°20.866 3°2.323 7.693989 3.299009 31.630577 -0.612702
2004-04-01 07:14:33 51°20.866 3°2.353 7.692823 3.299009 31.632098 -0.578993
2004-04-01 07:14:38 51°20.867 3°2.384 7.692434 3.298799 31.63062 -0.612702
2004-04-01 07:14:44 51°20.868 3°2.42 7.69049 3.299115 31.632457 -0.612702
2004-04-01 07:14:48 51°20.869 3°2.444 7.687573 3.299325 31.637739 -0.612702
2004-04-01 07:14:53 51°20.87 3°2.475 7.687573 3.299325 31.637739 -0.612702
2004-04-01 07:14:58 51°20.871 3°2.505 7.688789 3.299325 31.640782 -0.612702
2004-04-01 07:15:04 51°20.871 3°2.541 7.68558 3.299641 31.644902 -0.612702
2004-04-01 07:15:08 51°20.872 3°2.565 7.688254 3.299852 31.650186 -0.612702
2004-04-01 07:15:14 51°20.874 3°2.601 7.683393 3.299957 31.652829 -0.646411
2004-04-01 07:15:18 51°20.874 3°2.625 7.682275 3.300168 31.657353 -0.612702
2004-04-01 07:15:24 51°20.875 3°2.662 7.682275 3.300168 31.657353 -0.612702
2004-04-01 07:15:28 51°20.876 3°2.686 7.680671 3.300379 31.660354 -0.578993
2004-04-01 07:15:32 51°20.877 3°2.711 7.67965 3.300484 31.662998 -0.578993
2004-04-01 07:15:38 51°20.878 3°2.747 7.68558 3.300273 31.662282 -0.612702
2004-04-01 07:15:44 51°20.88 3°2.783 7.678677 3.300273 31.664567 -0.612702
2004-04-01 07:15:48 51°20.88 3°2.807 7.680039 3.299957 31.661207 -0.612702
2004-04-01 07:15:53 51°20.882 3°2.838 7.680039 3.299957 31.661207 -0.612702
2004-04-01 07:15:58 51°20.883 3°2.868 7.683198 3.299536 31.657489 -0.578993
2004-04-01 07:16:04 51°20.884 3°2.904 7.683053 3.299325 31.655249 -0.612702
2004-04-01 07:16:08 51°20.885 3°2.928 7.680573 3.298799 31.64965 -0.612702
2004-04-01 07:16:14 51°20.886 3°2.965 7.68033 3.298272 31.64405 -0.612702
2004-04-01 07:16:18 51°20.887 3°2.989 7.680719 3.29743 31.635852 -0.612702
2004-04-01 07:16:24 51°20.888 3°3.025 7.680719 3.29743 31.635852 -0.612702
2004-04-01 07:16:29 51°20.889 3°3.055 7.682226 3.29764 31.635047 -0.612702
2004-04-01 07:16:33 51°20.89 3°3.08 7.680282 3.297114 31.631731 -0.612702
2004-04-01 07:16:38 51°20.891 3°3.11 7.678969 3.296692 31.627252 -0.646411
2004-04-01 07:16:44 51°20.892 3°3.147 7.679747 3.296377 31.625414 -0.646411
2004-04-01 07:16:49 51°20.894 3°3.177 7.679115 3.296166 31.622413 -0.612702
2004-04-01 07:16:54 51°20.895 3°3.207 7.679115 3.296166 31.622413 -0.612702
2004-04-01 07:16:58 51°20.896 3°3.231 7.679407 3.295745 31.619456 -0.612702
2004-04-01 07:17:02 51°20.897 3°3.253 7.678045 3.295323 31.614977 -0.578993
2004-04-01 07:17:08 51°20.898 3°3.285 7.676781 3.295639 31.618336 -0.612702
2004-04-01 07:17:13 51°20.899 3°3.311 7.677851 3.295323 31.614216 -0.612702
2004-04-01 07:17:18 51°20.9 3°3.334 7.679893 3.295007 31.612378 -0.612702
2004-04-01 07:17:24 51°20.903 3°3.36 7.679893 3.295007 31.612378 -0.612702
2004-04-01 07:17:28 51°20.906 3°3.375 7.677219 3.294902 31.609736 -0.646411
2004-04-01 07:17:33 51°20.911 3°3.393 7.681448 3.294902 31.611258 -0.578993
2004-04-01 07:17:38 51°20.916 3°3.41 7.677073 3.294586 31.608659 -0.612702
2004-04-01 07:17:44 51°20.923 3°3.43 7.676441 3.294797 31.609377 -0.612702
2004-04-01 07:17:48 51°20.927 3°3.442 7.682421 3.294059 31.603821 -0.612702
2004-04-01 07:17:54 51°20.934 3°3.46 7.682421 3.294059 31.603821 -0.612702
2004-04-01 07:17:58 51°20.938 3°3.472 7.682421 3.294059 31.60306 -0.578993
2004-04-01 07:18:04 51°20.944 3°3.49 7.686164 3.293849 31.601581 -0.612702
2004-04-01 07:18:08 51°20.948 3°3.501 7.684754 3.293533 31.598982 -0.612702
2004-04-01 07:18:13 51°20.952 3°3.514 7.684949 3.293638 31.59782 -0.646411
2004-04-01 07:18:18 51°20.957 3°3.527 7.685969 3.293322 31.59294 -0.612702
2004-04-01 07:18:24 51°20.962 3°3.541 7.685969 3.293322 31.59294 -0.612702
2004-04-01 07:18:28 51°20.965 3°3.55 7.68033 3.293428 31.593299 -0.646411
2004-04-01 07:18:34 51°20.97 3°3.564 7.681157 3.293217 31.58954 -0.612702
2004-04-01 07:18:38 51°20.973 3°3.572 7.678823 3.293112 31.58918 -0.612702
2004-04-01 07:18:44 51°20.978 3°3.585 7.678045 3.293112 31.5869 -0.578993
2004-04-01 07:18:48 51°20.98 3°3.593 7.680087 3.293006 31.5873 -0.578993
2004-04-01 07:18:54 51°20.985 3°3.605 7.680087 3.293006 31.5873 -0.578993
2004-04-01 07:18:58 51°20.987 3°3.612 7.683004 3.292796 31.585061 -0.646411
2004-04-01 07:19:04 51°20.991 3°3.623 7.678483 3.292796 31.587342 -0.612702
2004-04-01 07:19:08 51°20.993 3°3.631 7.680573 3.29248 31.585503 -0.646411
2004-04-01 07:19:13 51°20.995 3°3.639 7.677462 3.29248 31.584743 -0.612702
2004-04-01 07:19:18 51°20.998 3°3.648 7.676052 3.292585 31.585862 -0.578993
2004-04-01 07:19:24 51°21 3°3.658 7.676052 3.292585 31.585862 -0.578993
2004-04-01 07:19:28 51°21.002 3°3.664 7.677413 3.292901 31.589221 -0.612702
2004-04-01 07:19:34 51°21.004 3°3.674 7.676052 3.292374 31.582863 -0.612702
2004-04-01 07:19:38 51°21.006 3°3.68 7.680525 3.292585 31.586623 -0.578993
2004-04-01 07:19:43 51°21.007 3°3.687 7.67717 3.292058 31.582544 -0.612702
2004-04-01 07:19:49 51°21.009 3°3.696 7.679407 3.292058 31.584064 -0.612702
2004-04-01 07:19:54 51°21.011 3°3.703 7.679407 3.292058 31.584064 -0.612702
2004-04-01 07:19:58 51°21.012 3°3.709 7.6779 3.292058 31.583304 -0.612702
2004-04-01 07:20:04 51°21.014 3°3.717 7.679552 3.291953 31.581424 -0.612702
2004-04-01 07:20:08 51°21.014 3°3.722 7.684122 3.292058 31.582544 -0.612702
2004-04-01 07:20:13 51°21.016 3°3.729 7.68106 3.292058 31.583304 -0.646411
2004-04-01 07:20:18 51°21.017 3°3.735 7.679601 3.292058 31.582544 -0.612702
2004-04-01 07:20:24 51°21.018 3°3.742 7.679601 3.292058 31.582544 -0.612702
2004-04-01 07:20:28 51°21.019 3°3.747 7.677851 3.292058 31.582544 -0.612702
2004-04-01 07:20:33 51°21.02 3°3.753 7.681935 3.291953 31.579144 -0.612702
2004-04-01 07:20:38 51°21.021 3°3.758 7.682761 3.292269 31.582503 -0.612702
2004-04-01 07:20:44 51°21.023 3°3.765 7.68383 3.292374 31.585903 -0.612702
2004-04-01 07:20:48 51°21.023 3°3.769 7.682129 3.291953 31.579904 -0.612702
2004-04-01 07:20:54 51°21.024 3°3.775 7.682129 3.291953 31.579904 -0.612702
2004-04-01 07:20:58 51°21.025 3°3.78 7.680914 3.291953 31.579904 -0.578993
2004-04-01 07:21:04 51°21.026 3°3.786 7.680719 3.291953 31.579144 -0.646411
2004-04-01 07:21:08 51°21.027 3°3.79 7.681983 3.29248 31.584743 -0.612702
2004-04-01 07:21:13 51°21.028 3°3.794 7.682178 3.292269 31.582503 -0.612702
2004-04-01 07:21:18 51°21.029 3°3.799 7.680962 3.292269 31.583263 -0.612702
2004-04-01 07:21:24 51°21.03 3°3.804 7.680962 3.292269 31.583263 -0.612702
2004-04-01 07:21:28 51°21.031 3°3.808 7.68106 3.292058 31.581024 -0.612702
2004-04-01 07:21:34 51°21.031 3°3.813 7.684317 3.291742 31.577665 -0.612702
2004-04-01 07:21:38 51°21.032 3°3.817 7.682907 3.291848 31.579545 -0.646411
2004-04-01 07:21:44 51°21.033 3°3.822 7.682421 3.292058 31.581024 -0.578993
2004-04-01 07:21:48 51°21.034 3°3.825 7.685921 3.292269 31.584023 -0.646411
2004-04-01 07:21:54 51°21.035 3°3.83 7.685921 3.292269 31.584023 -0.646411
2004-04-01 07:21:58 51°21.036 3°3.833 7.684997 3.292058 31.581024 -0.646411
2004-04-01 07:22:04 51°21.037 3°3.839 7.686018 3.292058 31.580264 -0.612702
2004-04-01 07:22:08 51°21.038 3°3.843 7.685678 3.292058 31.580264 -0.578993
2004-04-01 07:22:14 51°21.039 3°3.851 7.683782 3.292164 31.581384 -0.646411
2004-04-01 07:22:18 51°21.04 3°3.856 7.68558 3.292269 31.581743 -0.578993
2004-04-01 07:22:24 51°21.042 3°3.866 7.68558 3.292269 31.581743 -0.578993
2004-04-01 07:22:29 51°21.043 3°3.874 7.683976 3.29248 31.583222 -0.612702
2004-04-01 07:22:33 51°21.045 3°3.881 7.684122 3.292585 31.584342 -0.612702
2004-04-01 07:22:38 51°21.046 3°3.891 7.683053 3.292164 31.579864 -0.612702
2004-04-01 07:22:44 51°21.049 3°3.902 7.681643 3.292374 31.583623 -0.578993
2004-04-01 07:22:48 51°21.05 3°3.911 7.683636 3.292164 31.579864 -0.612702
2004-04-01 07:22:53 51°21.053 3°3.921 7.683636 3.292164 31.579864 -0.612702
2004-04-01 07:22:58 51°21.055 3°3.932 7.684268 3.292269 31.580983 -0.578993
2004-04-01 07:23:04 51°21.058 3°3.944 7.683782 3.29248 31.583222 -0.646411
2004-04-01 07:23:08 51°21.06 3°3.952 7.687136 3.292269 31.582503 -0.612702
2004-04-01 07:23:13 51°21.063 3°3.962 7.683685 3.292374 31.584383 -0.612702
2004-04-01 07:23:18 51°21.066 3°3.972 7.682712 3.292269 31.582503 -0.612702
2004-04-01 07:23:24 51°21.069 3°3.983 7.682712 3.292269 31.582503 -0.612702
2004-04-01 07:23:28 51°21.071 3°3.991 7.681691 3.292585 31.585862 -0.612702
2004-04-01 07:23:33 51°21.074 3°4 7.681011 3.292374 31.582103 -0.612702
2004-04-01 07:23:38 51°21.077 3°4.009 7.683344 3.29248 31.583983 -0.578993
2004-04-01 07:23:42 51°21.079 3°4.016 7.680816 3.29269 31.586222 -0.578993
2004-04-01 07:23:48 51°21.083 3°4.027 7.679552 3.292585 31.586623 -0.612702
2004-04-01 07:23:54 51°21.087 3°4.037 7.679552 3.292585 31.586623 -0.612702
2004-04-01 07:23:58 51°21.089 3°4.044 7.681789 3.29269 31.587742 -0.612702
2004-04-01 07:24:04 51°21.093 3°4.054 7.680087 3.292796 31.588102 -0.612702
2004-04-01 07:24:08 51°21.095 3°4.061 7.680379 3.292796 31.588862 -0.612702
2004-04-01 07:24:13 51°21.099 3°4.069 7.679261 3.29269 31.589263 -0.646411
2004-04-01 07:24:18 51°21.102 3°4.077 7.679504 3.29269 31.587742 -0.612702
2004-04-01 07:24:24 51°21.105 3°4.086 7.679504 3.29269 31.587742 -0.612702
2004-04-01 07:24:28 51°21.108 3°4.093 7.6814 3.292585 31.586623 -0.612702
2004-04-01 07:24:34 51°21.111 3°4.102 7.68349 3.292585 31.587383 -0.612702
2004-04-01 07:24:38 51°21.114 3°4.108 7.684657 3.292796 31.588862 -0.612702
2004-04-01 07:24:44 51°21.117 3°4.117 7.686212 3.292585 31.588903 -0.612702
2004-04-01 07:24:48 51°21.119 3°4.123 7.687719 3.29248 31.586263 -0.578993
2004-04-01 07:24:54 51°21.123 3°4.132 7.687719 3.29248 31.586263 -0.578993
2004-04-01 07:24:58 51°21.125 3°4.138 7.688837 3.292585 31.586623 -0.612702
2004-04-01 07:25:04 51°21.128 3°4.146 7.686844 3.292585 31.585862 -0.612702
2004-04-01 07:25:08 51°21.13 3°4.152 7.694524 3.292585 31.585102 -0.612702
2004-04-01 07:25:14 51°21.133 3°4.161 7.687816 3.292374 31.581343 -0.612702
2004-04-01 07:25:18 51°21.135 3°4.166 7.693163 3.29269 31.583182 -0.612702
2004-04-01 07:25:24 51°21.138 3°4.175 7.693163 3.29269 31.583182 -0.612702
2004-04-01 07:25:28 51°21.14 3°4.18 7.694524 3.292269 31.578703 -0.646411
2004-04-01 07:25:34 51°21.142 3°4.189 7.698704 3.292058 31.574185 -0.578993
2004-04-01 07:25:38 51°21.144 3°4.194 7.693066 3.292058 31.574185 -0.612702
2004-04-01 07:25:44 51°21.147 3°4.203 7.693601 3.292058 31.574185 -0.646411
2004-04-01 07:25:48 51°21.149 3°4.208 7.692483 3.292164 31.573785 -0.578993
2004-04-01 07:25:54 51°21.152 3°4.216 7.692483 3.292164 31.573785 -0.578993
2004-04-01 07:25:58 51°21.154 3°4.222 7.695253 3.291953 31.569268 -0.646411
2004-04-01 07:26:04 51°21.156 3°4.23 7.695545 3.291848 31.569667 -0.612702
2004-04-01 07:26:09 51°21.159 3°4.236 7.693844 3.291742 31.567029 -0.612702
2004-04-01 07:26:14 51°21.161 3°4.243 7.695739 3.291426 31.564431 -0.612702
2004-04-01 07:26:18 51°21.163 3°4.249 7.694232 3.291637 31.566669 -0.612702
2004-04-01 07:26:24 51°21.166 3°4.257 7.694232 3.291637 31.566669 -0.612702
2004-04-01 07:26:28 51°21.168 3°4.262 7.697489 3.291637 31.56591 -0.612702
2004-04-01 07:26:33 51°21.17 3°4.268 7.695156 3.291742 31.567788 -0.612702
2004-04-01 07:26:38 51°21.172 3°4.275 7.69744 3.291532 31.564031 -0.578993
2004-04-01 07:26:44 51°21.175 3°4.283 7.695739 3.291321 31.562552 -0.612702
2004-04-01 07:26:48 51°21.177 3°4.288 7.696614 3.291532 31.564031 -0.612702
2004-04-01 07:26:53 51°21.18 3°4.294 7.696614 3.291532 31.564031 -0.612702
2004-04-01 07:26:58 51°21.182 3°4.301 7.696177 3.291426 31.563671 -0.612702
2004-04-01 07:27:04 51°21.184 3°4.309 7.696663 3.29111 31.558795 -0.612702
2004-04-01 07:27:09 51°21.187 3°4.315 7.695739 3.291321 31.561033 -0.612702
2004-04-01 07:27:14 51°21.189 3°4.322 7.694719 3.291426 31.561393 -0.612702
2004-04-01 07:27:18 51°21.191 3°4.327 7.692774 3.291637 31.56515 -0.578993
2004-04-01 07:27:24 51°21.194 3°4.335 7.692774 3.291637 31.56515 -0.578993
2004-04-01 07:27:28 51°21.195 3°4.34 7.693115 3.291742 31.56627 -0.612702
2004-04-01 07:27:34 51°21.198 3°4.348 7.692969 3.291426 31.562153 -0.612702
2004-04-01 07:27:38 51°21.2 3°4.353 7.694038 3.291848 31.566629 -0.612702
2004-04-01 07:27:44 51°21.202 3°4.361 7.698412 3.291742 31.56627 -0.612702
2004-04-01 07:27:49 51°21.205 3°4.367 7.694962 3.291637 31.566669 -0.646411
2004-04-01 07:27:54 51°21.207 3°4.374 7.694962 3.291637 31.566669 -0.646411
2004-04-01 07:27:58 51°21.208 3°4.379 7.693017 3.291742 31.567029 -0.612702
2004-04-01 07:28:04 51°21.211 3°4.387 7.695059 3.291426 31.563671 -0.612702
2004-04-01 07:28:08 51°21.212 3°4.392 7.694232 3.291532 31.564031 -0.612702
2004-04-01 07:28:13 51°21.214 3°4.399 7.691122 3.291953 31.569268 -0.612702
2004-04-01 07:28:18 51°21.216 3°4.405 7.69258 3.291637 31.56591 -0.612702
2004-04-01 07:28:24 51°21.219 3°4.413 7.69258 3.291637 31.56591 -0.612702
2004-04-01 07:28:28 51°21.22 3°4.418 7.702397 3.291848 31.568148 -0.612702
2004-04-01 07:28:34 51°21.223 3°4.426 7.711679 3.291848 31.566629 -0.612702
2004-04-01 07:28:38 51°21.224 3°4.431 7.707694 3.292269 31.56655 -0.578993
2004-04-01 07:28:43 51°21.226 3°4.438 7.704536 3.291953 31.563193 -0.612702
2004-04-01 07:28:48 51°21.228 3°4.445 7.705119 3.291742 31.558678 -0.612702
2004-04-01 07:28:54 51°21.23 3°4.452 7.705119 3.291742 31.558678 -0.612702
2004-04-01 07:28:58 51°21.231 3°4.458 7.703855 3.291742 31.553365 -0.578993
2004-04-01 07:29:04 51°21.234 3°4.466 7.705799 3.291531 31.548852 -0.578993
2004-04-01 07:29:08 51°21.235 3°4.471 7.704827 3.291531 31.547335 -0.612702
2004-04-01 07:29:13 51°21.237 3°4.478 7.702932 3.291847 31.552208 -0.578993
2004-04-01 07:29:18 51°21.238 3°4.484 7.713234 3.283211 31.458221 -0.612702
2004-04-01 07:29:22 51°21.24 3°4.49 7.713234 3.283211 31.458221 -0.612702
2004-04-01 07:29:28 51°21.242 3°4.497 7.71542 3.291847 31.552208 -0.612702
2004-04-01 07:29:34 51°21.244 3°4.505 7.712019 3.291637 31.549971 -0.612702
2004-04-01 07:29:38 51°21.245 3°4.511 7.721105 3.291637 31.549212 -0.612702
2004-04-01 07:29:44 51°21.247 3°4.519 7.714011 3.291426 31.543941 -0.612702
2004-04-01 07:29:48 51°21.249 3°4.524 7.715031 3.29111 31.539069 -0.612702
2004-04-01 07:29:54 51°21.251 3°4.532 7.715031 3.29111 31.539069 -0.612702
2004-04-01 07:29:58 51°21.252 3°4.537 7.72091 3.291005 31.537192 -0.646411
2004-04-01 07:30:04 51°21.254 3°4.545 7.718044 3.29111 31.537552 -0.612702
2004-04-01 07:30:08 51°21.255 3°4.551 7.724457 3.290794 31.52965 -0.612702
2004-04-01 07:30:14 51°21.257 3°4.559 7.717218 3.291215 31.535639 -0.612702
2004-04-01 07:30:18 51°21.259 3°4.564 7.718967 3.29111 31.53452 -0.646411
2004-04-01 07:30:24 51°21.261 3°4.572 7.718967 3.29111 31.53452 -0.646411
2004-04-01 07:30:28 51°21.262 3°4.577 7.719404 3.290899 31.529252 -0.612702
2004-04-01 07:30:32 51°21.263 3°4.583 7.716732 3.291215 31.531849 -0.646411
2004-04-01 07:30:38 51°21.265 3°4.59 7.725234 3.29111 31.530731 -0.612702
2004-04-01 07:30:44 51°21.267 3°4.599 7.722174 3.29111 31.530731 -0.612702
2004-04-01 07:30:49 51°21.269 3°4.605 7.723777 3.29111 31.530731 -0.612702
2004-04-01 07:30:54 51°21.27 3°4.612 7.723777 3.29111 31.530731 -0.612702
2004-04-01 07:30:58 51°21.272 3°4.617 7.720133 3.291215 31.531849 -0.612702
2004-04-01 07:31:04 51°21.274 3°4.625 7.725137 3.291005 31.528855 -0.646411
2004-04-01 07:31:08 51°21.275 3°4.631 7.723388 3.29111 31.5277 -0.612702
2004-04-01 07:31:13 51°21.276 3°4.637 7.72708 3.291215 31.528818 -0.612702
2004-04-01 07:31:18 51°21.278 3°4.644 7.724651 3.290899 31.525464 -0.612702
2004-04-01 07:31:24 51°21.28 3°4.652 7.724651 3.290899 31.525464 -0.612702
2004-04-01 07:31:28 51°21.281 3°4.657 7.731355 3.291321 31.529936 -0.612702
2004-04-01 07:31:34 51°21.283 3°4.665 7.737912 3.291321 31.529179 -0.646411
2004-04-01 07:31:38 51°21.284 3°4.671 7.731015 3.291215 31.525788 -0.646411
2004-04-01 07:31:44 51°21.286 3°4.679 7.735678 3.290794 31.520559 -0.612702
2004-04-01 07:31:48 51°21.287 3°4.685 7.751462 3.290899 31.522434 -0.612702
2004-04-01 07:31:54 51°21.289 3°4.693 7.751462 3.290899 31.522434 -0.612702
2004-04-01 07:31:58 51°21.29 3°4.698 7.743983 3.290583 31.51378 -0.612702
2004-04-01 07:32:04 51°21.291 3°4.707 7.745877 3.290478 31.511148 -0.612702
2004-04-01 07:32:09 51°21.293 3°4.713 7.743012 3.290162 31.507038 -0.612702
2004-04-01 07:32:14 51°21.294 3°4.72 7.740584 3.289951 31.501776 -0.612702
2004-04-01 07:32:18 51°21.295 3°4.726 7.746217 3.290057 31.499867 -0.646411
2004-04-01 07:32:24 51°21.297 3°4.734 7.746217 3.290057 31.499867 -0.646411
2004-04-01 07:32:28 51°21.298 3°4.74 7.743692 3.290267 31.499076 -0.612702
2004-04-01 07:32:34 51°21.3 3°4.748 7.753307 3.290057 31.496085 -0.612702
2004-04-01 07:32:38 51°21.301 3°4.753 7.75321 3.289951 31.494968 -0.578993
2004-04-01 07:32:44 51°21.302 3°4.762 7.748937 3.289846 31.494607 -0.646411
2004-04-01 07:32:48 51°21.303 3°4.767 7.744469 3.289425 31.488625 -0.612702
2004-04-01 07:32:53 51°21.305 3°4.774 7.744469 3.289425 31.488625 -0.612702
2004-04-01 07:32:58 51°21.306 3°4.781 7.747092 3.289635 31.489348 -0.612702
2004-04-01 07:33:04 51°21.307 3°4.789 7.753939 3.289214 31.484123 -0.612702
2004-04-01 07:33:08 51°21.309 3°4.795 7.758794 3.289214 31.484123 -0.612702
2004-04-01 07:33:14 51°21.31 3°4.803 7.759231 3.28953 31.488986 -0.612702
2004-04-01 07:33:18 51°21.311 3°4.809 7.758649 3.28953 31.489742 -0.612702
2004-04-01 07:33:24 51°21.312 3°4.817 7.758649 3.28953 31.489742 -0.612702
2004-04-01 07:33:28 51°21.313 3°4.823 7.762484 3.28953 31.485962 -0.612702
2004-04-01 07:33:34 51°21.314 3°4.831 7.758115 3.28953 31.482183 -0.612702
2004-04-01 07:33:38 51°21.315 3°4.837 7.752385 3.28974 31.484417 -0.612702
2004-04-01 07:33:44 51°21.317 3°4.845 7.758794 3.289635 31.481033 -0.612702
2004-04-01 07:33:49 51°21.318 3°4.852 7.759086 3.289951 31.482872 -0.612702
2004-04-01 07:33:54 51°21.319 3°4.859 7.759086 3.289951 31.482872 -0.612702
2004-04-01 07:33:58 51°21.32 3°4.865 7.7586 3.28953 31.479916 -0.612702
2004-04-01 07:34:04 51°21.321 3°4.873 7.756464 3.28974 31.483661 -0.612702
2004-04-01 07:34:09 51°21.322 3°4.88 7.755007 3.289424 31.478043 -0.578993
2004-04-01 07:34:14 51°21.323 3°4.887 7.750734 3.289635 31.481033 -0.612702
2004-04-01 07:34:19 51°21.324 3°4.894 7.751753 3.289846 31.482511 -0.612702
2004-04-01 07:34:24 51°21.325 3°4.901 7.751753 3.289846 31.482511 -0.612702
2004-04-01 07:34:28 51°21.326 3°4.907 7.75321 3.290056 31.485501 -0.612702
2004-04-01 07:34:33 51°21.327 3°4.914 7.75525 3.289951 31.486651 -0.612702
2004-04-01 07:34:38 51°21.328 3°4.921 7.753307 3.289951 31.488919 -0.612702
2004-04-01 07:34:44 51°21.329 3°4.929 7.753162 3.289951 31.488919 -0.646411
2004-04-01 07:34:48 51°21.33 3°4.935 7.747383 3.290267 31.49227 -0.646411
2004-04-01 07:34:52 51°21.331 3°4.941 7.747383 3.290267 31.49227 -0.646411
2004-04-01 07:34:58 51°21.332 3°4.949 7.744712 3.289951 31.488163 -0.578993
2004-04-01 07:35:04 51°21.333 3°4.958 7.749325 3.290478 31.493748 -0.612702
2004-04-01 07:35:08 51°21.334 3°4.963 7.750054 3.290372 31.492631 -0.612702
2004-04-01 07:35:14 51°21.335 3°4.972 7.752288 3.290478 31.49526 -0.612702
2004-04-01 07:35:18 51°21.336 3°4.977 7.751268 3.290372 31.495656 -0.646411
2004-04-01 07:35:24 51°21.337 3°4.986 7.751268 3.290372 31.495656 -0.646411
2004-04-01 07:35:28 51°21.338 3°4.992 7.746654 3.290583 31.49789 -0.612702
2004-04-01 07:35:34 51°21.338 3°5 7.748548 3.290478 31.496773 -0.612702
2004-04-01 07:35:38 51°21.339 3°5.006 7.755687 3.290478 31.496773 -0.612702
2004-04-01 07:35:43 51°21.34 3°5.013 7.758066 3.290688 31.499007 -0.612702
2004-04-01 07:35:49 51°21.341 3°5.022 7.74816 3.290267 31.496807 -0.612702
2004-04-01 07:35:54 51°21.342 3°5.029 7.74816 3.290267 31.496807 -0.612702
2004-04-01 07:35:58 51°21.343 3°5.035 7.753793 3.290372 31.497168 -0.612702
2004-04-01 07:36:04 51°21.344 3°5.043 7.752822 3.290267 31.494538 -0.612702
2004-04-01 07:36:09 51°21.345 3°5.051 7.75593 3.290583 31.496378 -0.578993
2004-04-01 07:36:13 51°21.346 3°5.056 7.756949 3.290478 31.494504 -0.612702
2004-04-01 07:36:18 51°21.347 3°5.063 7.753939 3.290688 31.49447 -0.612702
2004-04-01 07:36:24 51°21.348 3°5.072 7.753939 3.290688 31.49447 -0.612702